M I D A S
Marine Information and Data Acquisition System
Tripno 2251 of the Zeeleeuw from 2012-01-09 07:45:25 to 2012-01-09 16:54:30
Back to CruiseResearch ActivitiesStationsMapUnderway DataData graphs

EquipmentUnitsComment
TimeDGPSUTC
LatitudeDGPSDM.mWGS84
LongitudeDGPSDM.mWGS84
TemperatureSBE03/SBE38deg celciusITS90
ConductivitySBE21S/mITS90
SalinitySBE21 Practical Salinity Units
ChlorophylAChelsea fluorimeterg/lCalibrated in Aceton
Missing or incorrect values are displayed as -999
Sea surface data collected by the RV Zeeleeuw from 2012-01-09 07:41:39 to 2012-01-09 17:03:19
                                                                                    Next 1000 lines
Time Latitude Longitude Temperature Conductivity Salinity ChlorophylA
2012-01-09 07:41:49 51°13.636 2°56.018 13.4937 0.07376 0.387053 -2.458615
2012-01-09 07:41:54 51°13.636 2°56.018 13.4949 0.073863 0.387617 -2.458615
2012-01-09 07:41:59 51°13.636 2°56.018 13.4957 0.073863 0.387617 -2.458615
2012-01-09 07:42:04 51°13.636 2°56.018 13.496 0.073863 0.387617 -2.458615
2012-01-09 07:42:09 51°13.636 2°56.018 13.4958 0.073863 0.387617 -2.458615
2012-01-09 07:42:14 51°13.636 2°56.018 13.4959 0.073863 0.387617 -2.458615
2012-01-09 07:42:19 51°13.636 2°56.018 13.4933 0.073863 0.387617 -2.458615
2012-01-09 07:42:24 51°13.636 2°56.018 13.4924 0.073863 0.387623 -2.458615
2012-01-09 07:42:29 51°13.636 2°56.018 13.4933 0.073863 0.387623 -2.458615
2012-01-09 07:42:34 51°13.636 2°56.018 13.4913 0.073863 0.387623 -2.458615
2012-01-09 07:42:39 51°13.636 2°56.018 13.4927 0.073863 0.387623 -2.458615
2012-01-09 07:42:44 51°13.636 2°56.018 13.4946 0.07376 0.387066 -2.458615
2012-01-09 07:42:49 51°13.636 2°56.018 13.4968 0.073863 0.387629 -2.458615
2012-01-09 07:42:54 51°13.636 2°56.018 13.4968 0.073863 0.387629 -2.458615
2012-01-09 07:42:59 51°13.636 2°56.018 13.4953 0.073863 0.387629 -2.458615
2012-01-09 07:43:04 51°13.635 2°56.018 13.4948 0.073863 0.387629 -2.458615
2012-01-09 07:43:09 51°13.635 2°56.018 13.4938 0.073863 0.387636 -2.458615
2012-01-09 07:43:14 51°13.635 2°56.018 13.4944 0.073863 0.387636 -2.458615
2012-01-09 07:43:19 51°13.635 2°56.018 13.4932 0.073863 0.387636 -2.458615
2012-01-09 07:43:24 51°13.635 2°56.018 13.4933 0.073863 0.387636 -2.458615
2012-01-09 07:43:29 51°13.635 2°56.018 13.492 0.073863 0.387636 -2.458615
2012-01-09 07:43:34 51°13.635 2°56.018 13.4924 0.07376 0.387079 -2.458615
2012-01-09 07:43:39 51°13.635 2°56.018 13.493 0.07376 0.387085 -2.458615
2012-01-09 07:43:44 51°13.635 2°56.018 13.4926 0.073863 0.387642 -2.458615
2012-01-09 07:43:49 51°13.635 2°56.018 13.4924 0.07376 0.387092 -2.458615
2012-01-09 07:43:54 51°13.635 2°56.018 13.494 0.073863 0.387642 -2.458615
2012-01-09 07:43:59 51°13.635 2°56.018 13.495 0.073863 0.387642 -2.458615
2012-01-09 07:44:04 51°13.635 2°56.018 13.4946 0.07376 0.387092 -2.458615
2012-01-09 07:44:09 51°13.635 2°56.018 13.4928 0.07376 0.387092 -2.458615
2012-01-09 07:44:14 51°13.635 2°56.017 13.4937 0.07376 0.387098 -2.458615
2012-01-09 07:44:19 51°13.635 2°56.017 13.4948 0.07376 0.387098 -2.458615
2012-01-09 07:44:24 51°13.635 2°56.017 13.4967 0.073863 0.387662 -2.458615
2012-01-09 07:44:29 51°13.635 2°56.017 13.4998 0.073863 0.387662 -2.458615
2012-01-09 07:44:34 51°13.635 2°56.017 13.5011 0.07376 0.387105 -2.458615
2012-01-09 07:44:39 51°13.635 2°56.018 13.5016 0.073863 0.387662 -2.458615
2012-01-09 07:44:44 51°13.636 2°56.018 13.5017 0.07376 0.387105 -2.458615
2012-01-09 07:44:49 51°13.635 2°56.017 13.5025 0.07376 0.387111 -2.458615
2012-01-09 07:44:54 51°13.635 2°56.018 13.5028 0.073863 0.387668 -2.458615
2012-01-09 07:44:59 51°13.635 2°56.018 13.5037 0.073863 0.387668 -2.458615
2012-01-09 07:45:04 51°13.635 2°56.018 13.5043 0.07376 0.387118 -2.458615
2012-01-09 07:45:09 51°13.635 2°56.018 13.5044 0.07376 0.387118 -2.458615
2012-01-09 07:45:14 51°13.636 2°56.018 13.5046 0.07376 0.387118 -2.458615
2012-01-09 07:45:19 51°13.636 2°56.018 13.5042 0.07376 0.387124 -2.458615
2012-01-09 07:45:24 51°13.636 2°56.018 13.5051 0.073863 0.387675 -2.458615
2012-01-09 07:45:29 51°13.636 2°56.018 13.5028 0.073863 0.387675 -2.458615
2012-01-09 07:45:34 51°13.636 2°56.018 13.5039 0.07376 0.387124 -2.458615
2012-01-09 07:45:39 51°13.636 2°56.018 13.5036 0.073863 0.387688 -2.458615
2012-01-09 07:45:44 51°13.636 2°56.018 13.5035 0.073863 0.387688 -2.458615
2012-01-09 07:45:49 51°13.636 2°56.018 13.505 0.073863 0.387694 -2.458615
2012-01-09 07:45:54 51°13.636 2°56.018 13.5047 0.07376 0.387137 -2.458615
2012-01-09 07:45:59 51°13.636 2°56.018 13.5056 0.07376 0.387137 -2.458615
2012-01-09 07:46:04 51°13.636 2°56.018 13.5049 0.07376 0.387137 -2.458615
2012-01-09 07:46:09 51°13.636 2°56.018 13.5045 0.07376 0.387137 -2.458615
2012-01-09 07:46:14 51°13.636 2°56.018 13.5036 0.07376 0.387137 -2.458615
2012-01-09 07:46:19 51°13.636 2°56.018 13.5058 0.07376 0.387144 -2.458615
2012-01-09 07:46:24 51°13.636 2°56.018 13.506 0.07376 0.38715 -2.458615
2012-01-09 07:46:29 51°13.636 2°56.018 13.5061 0.07376 0.38715 -2.458615
2012-01-09 07:46:34 51°13.636 2°56.018 13.5061 0.07376 0.38715 -2.458615
2012-01-09 07:46:39 51°13.636 2°56.018 13.5069 0.07376 0.38715 -2.458615
2012-01-09 07:46:44 51°13.636 2°56.018 13.5054 0.07376 0.38715 -2.458615
2012-01-09 07:46:49 51°13.636 2°56.018 13.5056 0.07376 0.387156 -2.458615
2012-01-09 07:46:54 51°13.636 2°56.018 13.5056 0.07376 0.387156 -2.458615
2012-01-09 07:46:59 51°13.636 2°56.018 13.5053 0.07376 0.387156 -2.458615
2012-01-09 07:47:04 51°13.636 2°56.018 13.5031 0.07376 0.387156 -2.458615
2012-01-09 07:47:09 51°13.635 2°56.018 13.5013 0.07376 0.387163 -2.458615
2012-01-09 07:47:14 51°13.635 2°56.018 13.5023 0.07376 0.387163 -2.458615
2012-01-09 07:47:19 51°13.635 2°56.018 13.5042 0.07376 0.387163 -2.458615
2012-01-09 07:47:24 51°13.635 2°56.018 13.504 0.07376 0.387169 -2.458615
2012-01-09 07:47:29 51°13.635 2°56.018 13.5059 0.07376 0.387169 -2.458615
2012-01-09 07:47:34 51°13.635 2°56.018 13.5071 0.07376 0.387169 -2.458615
2012-01-09 07:47:39 51°13.635 2°56.018 13.5091 0.07376 0.387176 -2.458615
2012-01-09 07:47:44 51°13.635 2°56.018 13.5091 0.07376 0.387176 -2.458615
2012-01-09 07:47:49 51°13.635 2°56.018 13.508 0.07376 0.387176 -2.458615
2012-01-09 07:47:54 51°13.635 2°56.018 13.5064 0.07376 0.387182 -2.458615
2012-01-09 07:47:59 51°13.635 2°56.018 13.5045 0.07376 0.387182 -2.458615
2012-01-09 07:48:04 51°13.636 2°56.018 13.5017 0.07376 0.387182 -2.458615
2012-01-09 07:48:09 51°13.636 2°56.018 13.4995 0.07376 0.387182 -2.458615
2012-01-09 07:48:14 51°13.636 2°56.018 13.4999 0.07376 0.387189 -2.458615
2012-01-09 07:48:19 51°13.636 2°56.018 13.5002 0.07376 0.387189 -2.458615
2012-01-09 07:48:24 51°13.636 2°56.018 13.4998 0.07376 0.387195 -2.458615
2012-01-09 07:48:29 51°13.636 2°56.018 13.5006 0.07376 0.387195 -2.458615
2012-01-09 07:48:34 51°13.636 2°56.019 13.498 0.07376 0.387195 -2.458615
2012-01-09 07:48:39 51°13.636 2°56.019 13.4968 0.07376 0.387195 -2.458615
2012-01-09 07:48:44 51°13.636 2°56.019 13.4951 0.07376 0.387195 -2.458615
2012-01-09 07:48:49 51°13.636 2°56.019 13.4937 0.07376 0.387202 -2.458615
2012-01-09 07:48:54 51°13.636 2°56.019 13.4947 0.07376 0.387202 -2.458615
2012-01-09 07:48:59 51°13.636 2°56.019 13.4952 0.07376 0.387202 -2.458615
2012-01-09 07:49:04 51°13.636 2°56.019 13.4974 0.07376 0.387208 -2.458615
2012-01-09 07:49:09 51°13.636 2°56.019 13.4969 0.07376 0.387215 -2.458615
2012-01-09 07:49:13 51°13.636 2°56.019 13.4978 0.07376 0.387208 -2.458615
2012-01-09 07:49:19 51°13.635 2°56.019 13.4999 0.07376 0.387215 -2.458615
2012-01-09 07:49:24 51°13.635 2°56.019 13.5032 0.07376 0.387215 -2.458615
2012-01-09 07:49:29 51°13.635 2°56.019 13.505 0.07376 0.387215 -2.458615
2012-01-09 07:49:34 51°13.636 2°56.019 13.5068 0.07376 0.387215 -2.458615
2012-01-09 07:49:39 51°13.636 2°56.019 13.5071 0.07376 0.387221 -2.458615
2012-01-09 07:49:44 51°13.636 2°56.019 13.5078 0.07376 0.387221 -2.458615
2012-01-09 07:49:49 51°13.635 2°56.019 13.509 0.07376 0.387221 -2.458615
2012-01-09 07:49:54 51°13.635 2°56.019 13.5098 0.07376 0.387228 -2.458615
2012-01-09 07:49:59 51°13.635 2°56.019 13.5105 0.07376 0.387228 -2.458615
2012-01-09 07:50:04 51°13.635 2°56.019 13.5125 0.07376 0.387228 -2.458615
2012-01-09 07:50:09 51°13.635 2°56.019 13.5101 0.07376 0.387228 -2.458615
2012-01-09 07:50:14 51°13.635 2°56.019 13.5105 0.07376 0.387234 -2.458615
2012-01-09 07:50:19 51°13.635 2°56.019 13.5147 0.07376 0.387234 -2.458615
2012-01-09 07:50:24 51°13.635 2°56.019 13.5197 0.07376 0.387241 -2.458615
2012-01-09 07:50:29 51°13.635 2°56.019 13.5201 0.07376 0.387241 -2.458615
2012-01-09 07:50:34 51°13.635 2°56.018 13.5187 0.07376 0.387241 -2.458615
2012-01-09 07:50:39 51°13.634 2°56.018 13.5167 0.07376 0.387241 -2.458615
2012-01-09 07:50:44 51°13.634 2°56.018 13.5177 0.07376 0.387247 -2.458615
2012-01-09 07:50:49 51°13.634 2°56.018 13.5173 0.07376 0.387254 -2.458615
2012-01-09 07:50:54 51°13.634 2°56.018 13.5166 0.07376 0.387247 -2.458615
2012-01-09 07:50:59 51°13.634 2°56.018 13.5167 0.07376 0.387247 -2.458615
2012-01-09 07:51:04 51°13.634 2°56.018 13.5166 0.07376 0.387254 -2.458615
2012-01-09 07:51:09 51°13.634 2°56.018 13.5112 0.07376 0.387254 -2.458615
2012-01-09 07:51:13 51°13.634 2°56.018 13.4316 0.07376 0.387254 -2.458615
2012-01-09 07:51:18 51°13.635 2°56.017 13.4011 0.07376 0.38726 -2.458615
2012-01-09 07:51:24 51°13.635 2°56.015 13.2459 0.07376 0.38726 -2.458615
2012-01-09 07:51:28 51°13.636 2°56.012 13.3478 0.07376 0.38726 -2.458615
2012-01-09 07:51:33 51°13.637 2°56.008 13.3959 0.07376 0.387267 -2.458615
2012-01-09 07:51:37 51°13.638 2°56.004 13.4057 0.07376 0.387267 -2.458615
2012-01-09 07:51:43 51°13.64 2°55.997 13.417 0.07376 0.387273 -2.458615
2012-01-09 07:51:49 51°13.641 2°55.989 13.4277 0.07376 0.387273 -2.458615
2012-01-09 07:51:54 51°13.643 2°55.982 13.4357 0.073657 0.386716 -2.458615
2012-01-09 07:51:59 51°13.645 2°55.974 13.4369 0.073657 0.386716 -2.458615
2012-01-09 07:52:04 51°13.647 2°55.966 13.4389 0.073657 0.386722 -2.458615
2012-01-09 07:52:09 51°13.648 2°55.958 13.4436 0.073657 0.386722 -2.458615
2012-01-09 07:52:14 51°13.65 2°55.949 13.4683 0.073657 0.386716 -2.458615
2012-01-09 07:52:19 51°13.652 2°55.941 13.4543 0.073657 0.386722 -2.458615
2012-01-09 07:52:24 51°13.653 2°55.932 13.4565 0.073657 0.386722 -2.458615
2012-01-09 07:52:29 51°13.655 2°55.924 13.4603 0.073657 0.386722 -2.458615
2012-01-09 07:52:34 51°13.656 2°55.915 13.4622 0.073657 0.386722 -2.458615
2012-01-09 07:52:39 51°13.658 2°55.907 13.4674 0.073657 0.386729 -2.458615
2012-01-09 07:52:44 51°13.66 2°55.898 13.4665 0.073657 0.386729 -2.458615
2012-01-09 07:52:49 51°13.662 2°55.89 13.463 0.073657 0.386729 -2.458615
2012-01-09 07:52:54 51°13.664 2°55.881 13.4626 0.073657 0.386735 -2.458615
2012-01-09 07:52:59 51°13.666 2°55.873 13.45 0.073657 0.386735 -2.458615
2012-01-09 07:53:04 51°13.668 2°55.864 13.453 0.073657 0.386742 -2.458615
2012-01-09 07:53:09 51°13.671 2°55.855 13.4552 0.073657 0.386742 -2.458615
2012-01-09 07:53:14 51°13.674 2°55.847 13.4621 0.073657 0.386742 -2.458615
2012-01-09 07:53:19 51°13.676 2°55.838 13.4697 0.073657 0.386754 -2.458615
2012-01-09 07:53:24 51°13.679 2°55.829 13.4719 0.073657 0.386754 -2.458615
2012-01-09 07:53:29 51°13.682 2°55.82 13.4722 0.073657 0.386754 -2.458615
2012-01-09 07:53:34 51°13.685 2°55.812 13.4711 0.073657 0.386754 -2.458615
2012-01-09 07:53:39 51°13.688 2°55.803 13.4608 0.073657 0.386761 -2.458615
2012-01-09 07:53:44 51°13.691 2°55.795 13.4503 0.073657 0.386761 -2.458615
2012-01-09 07:53:49 51°13.694 2°55.787 13.4582 0.073657 0.386761 -2.458615
2012-01-09 07:53:54 51°13.697 2°55.779 13.4683 0.073657 0.386761 -2.458615
2012-01-09 07:53:59 51°13.701 2°55.771 13.4696 0.073657 0.386761 -2.458615
2012-01-09 07:54:04 51°13.704 2°55.763 13.4685 0.073657 0.386767 -2.458615
2012-01-09 07:54:09 51°13.708 2°55.755 13.4675 0.073657 0.386774 -2.458615
2012-01-09 07:54:14 51°13.712 2°55.748 13.4636 0.073657 0.386774 -2.458615
2012-01-09 07:54:19 51°13.716 2°55.741 13.4496 0.073657 0.386774 -2.458615
2012-01-09 07:54:24 51°13.72 2°55.734 13.4629 0.073657 0.38678 -2.458615
2012-01-09 07:54:29 51°13.724 2°55.727 13.4588 0.073657 0.38678 -2.458615
2012-01-09 07:54:34 51°13.728 2°55.72 13.4733 0.073657 0.386787 -2.458615
2012-01-09 07:54:39 51°13.732 2°55.713 13.4675 0.073657 0.386787 -2.458615
2012-01-09 07:54:44 51°13.736 2°55.707 13.473 0.073657 0.386793 -2.458615
2012-01-09 07:54:49 51°13.741 2°55.701 13.4673 0.073657 0.3868 -2.458615
2012-01-09 07:54:54 51°13.745 2°55.695 13.4677 0.073554 0.386236 -2.458615
2012-01-09 07:54:59 51°13.75 2°55.69 13.4663 0.073554 0.386236 -2.458615
2012-01-09 07:55:04 51°13.755 2°55.684 13.4608 0.073554 0.386236 -2.458615
2012-01-09 07:55:09 51°13.76 2°55.679 13.4617 0.073554 0.386249 -2.458615
2012-01-09 07:55:14 51°13.765 2°55.674 13.4452 0.073554 0.386249 -2.458615
2012-01-09 07:55:19 51°13.771 2°55.668 13.4522 0.073554 0.386249 -2.458615
2012-01-09 07:55:24 51°13.777 2°55.664 13.4535 0.073554 0.386255 -2.458615
2012-01-09 07:55:29 51°13.783 2°55.659 13.4572 0.073554 0.386255 -2.458615
2012-01-09 07:55:34 51°13.79 2°55.655 13.466 0.073554 0.386262 -2.458615
2012-01-09 07:55:39 51°13.797 2°55.651 13.464 0.073554 0.386268 -2.458615
2012-01-09 07:55:44 51°13.803 2°55.647 13.4649 0.073554 0.386262 -2.458615
2012-01-09 07:55:49 51°13.811 2°55.644 13.4617 0.073554 0.386268 -2.458615
2012-01-09 07:55:54 51°13.818 2°55.641 13.4608 0.073554 0.386268 -2.458615
2012-01-09 07:55:59 51°13.825 2°55.639 13.464 0.073554 0.386268 -2.458615
2012-01-09 07:56:04 51°13.833 2°55.638 13.4698 0.073554 0.386275 -2.458615
2012-01-09 07:56:09 51°13.841 2°55.636 13.4719 0.073451 0.385717 -2.458615
2012-01-09 07:56:14 51°13.848 2°55.635 13.4734 0.073451 0.385724 -2.458615
2012-01-09 07:56:19 51°13.856 2°55.634 13.4695 0.073451 0.385724 -2.458615
2012-01-09 07:56:24 51°13.863 2°55.634 13.4679 0.073451 0.38573 -2.458615
2012-01-09 07:56:29 51°13.871 2°55.634 13.4663 0.073451 0.38573 -2.458615
2012-01-09 07:56:34 51°13.878 2°55.634 13.4665 0.073451 0.38573 -2.458615
2012-01-09 07:56:39 51°13.885 2°55.635 13.4677 0.073451 0.38573 -2.458615
2012-01-09 07:56:44 51°13.892 2°55.636 13.4708 0.073451 0.385736 -2.458615
2012-01-09 07:56:49 51°13.899 2°55.636 13.4652 0.073451 0.385743 -2.458615
2012-01-09 07:56:54 51°13.906 2°55.638 13.4596 0.073451 0.385743 -2.458615
2012-01-09 07:56:59 51°13.913 2°55.64 13.4504 0.073451 0.385743 -2.458615
2012-01-09 07:57:04 51°13.92 2°55.642 13.4689 0.073451 0.385743 -2.458615
2012-01-09 07:57:09 51°13.926 2°55.644 13.4627 0.073451 0.385749 -2.458615
2012-01-09 07:57:14 51°13.932 2°55.646 13.4677 0.073451 0.385762 -2.458615
2012-01-09 07:57:19 51°13.938 2°55.649 13.4598 0.073451 0.385756 -2.458615
2012-01-09 07:57:24 51°13.943 2°55.651 13.4721 0.073451 0.385762 -2.458615
2012-01-09 07:57:29 51°13.949 2°55.654 13.462 0.073451 0.385762 -2.458615
2012-01-09 07:57:34 51°13.954 2°55.657 13.4675 0.073451 0.385762 -2.458615
2012-01-09 07:57:39 51°13.959 2°55.659 13.4724 0.073451 0.385769 -2.458615
2012-01-09 07:57:44 51°13.964 2°55.662 13.4993 0.073451 0.385775 -2.458615
2012-01-09 07:57:49 51°13.967 2°55.665 13.4891 0.073451 0.385775 -2.458615
2012-01-09 07:57:54 51°13.97 2°55.666 13.5023 0.073451 0.385827 -2.458615
2012-01-09 07:57:59 51°13.971 2°55.666 13.4934 0.073451 0.385827 -2.458615
2012-01-09 07:58:04 51°13.971 2°55.665 13.4344 0.073451 0.385898 -2.458615
2012-01-09 07:58:09 51°13.97 2°55.664 13.3298 0.073451 0.385943 -2.458615
2012-01-09 07:58:14 51°13.969 2°55.661 13.3112 0.073451 0.38595 -2.458615
2012-01-09 07:58:19 51°13.969 2°55.658 13.4164 0.073451 0.38593 -2.458615
2012-01-09 07:58:24 51°13.968 2°55.654 13.34 0.073451 0.385891 -2.458615
2012-01-09 07:58:29 51°13.967 2°55.65 13.2533 0.073451 0.385891 -2.458615
2012-01-09 07:58:34 51°13.967 2°55.645 13.3288 0.073451 0.385846 -2.458615
2012-01-09 07:58:39 51°13.967 2°55.64 13.2783 0.073451 0.385788 -2.458615
2012-01-09 07:58:44 51°13.967 2°55.635 13.2893 0.073451 0.385743 -2.458615
2012-01-09 07:58:49 51°13.968 2°55.629 13.3804 0.073451 0.385724 -2.458615
2012-01-09 07:58:54 51°13.969 2°55.623 13.3882 0.073451 0.385736 -2.458615
2012-01-09 07:58:59 51°13.97 2°55.617 13.3675 0.073451 0.385736 -2.458615
2012-01-09 07:59:04 51°13.972 2°55.612 13.328 0.073451 0.385762 -2.458615
2012-01-09 07:59:09 51°13.974 2°55.606 13.3432 0.073451 0.385807 -2.458615
2012-01-09 07:59:14 51°13.977 2°55.6 13.4079 0.073451 0.38584 -2.458615
2012-01-09 07:59:19 51°13.98 2°55.595 13.4082 0.073451 0.385872 -2.458615
2012-01-09 07:59:24 51°13.984 2°55.589 13.4196 0.073451 0.385898 -2.458615
2012-01-09 07:59:29 51°13.988 2°55.583 13.4292 0.073451 0.385898 -2.458615
2012-01-09 07:59:34 51°13.992 2°55.578 13.4292 0.073451 0.385911 -2.458615
2012-01-09 07:59:39 51°13.997 2°55.572 13.4442 0.073451 0.385911 -2.458615
2012-01-09 07:59:44 51°14.003 2°55.566 13.4452 0.073451 0.385904 -2.458615
2012-01-09 07:59:49 51°14.008 2°55.559 13.4361 0.073451 0.385891 -2.458615
2012-01-09 07:59:53 51°14.013 2°55.554 13.4265 0.073451 0.385879 -2.458615
2012-01-09 07:59:58 51°14.02 2°55.547 13.4178 0.073451 0.385879 -2.458615
2012-01-09 08:00:03 51°14.026 2°55.54 13.3991 0.073451 0.385872 -2.458615
2012-01-09 08:00:08 51°14.034 2°55.533 13.4093 0.073451 0.385872 -2.458615
2012-01-09 08:00:13 51°14.041 2°55.525 13.3848 0.073451 0.385872 -2.458615
2012-01-09 08:00:18 51°14.049 2°55.517 13.3716 0.073451 0.385879 -2.458615
2012-01-09 08:00:23 51°14.057 2°55.509 13.345 0.073451 0.385879 -2.458615
2012-01-09 08:00:28 51°14.066 2°55.501 13.3417 0.073451 0.385879 -2.458615
2012-01-09 08:00:33 51°14.074 2°55.492 13.3834 0.073451 0.385891 -2.458615
2012-01-09 08:00:38 51°14.083 2°55.483 13.3327 0.073451 0.385904 -2.458615
2012-01-09 08:00:43 51°14.092 2°55.474 13.3221 0.073451 0.385911 -2.458615
2012-01-09 08:00:49 51°14.103 2°55.462 13.2021 0.073451 0.385917 -2.458615
2012-01-09 08:00:54 51°14.113 2°55.452 13.2821 0.073451 0.385917 -2.458615
2012-01-09 08:00:59 51°14.122 2°55.442 13.2481 0.073451 0.385917 -2.458615
2012-01-09 08:01:04 51°14.133 2°55.432 13.267 0.073451 0.385917 -2.458615
2012-01-09 08:01:09 51°14.143 2°55.422 13.2889 0.073451 0.385917 -2.458615
2012-01-09 08:01:14 51°14.153 2°55.413 13.2666 0.073451 0.385924 -2.458615
2012-01-09 08:01:19 51°14.164 2°55.403 13.2613 0.073451 0.385924 -2.458615
2012-01-09 08:01:24 51°14.174 2°55.393 13.2647 0.073451 0.38593 -2.458615
2012-01-09 08:01:29 51°14.185 2°55.382 13.268 0.073451 0.38593 -2.458615
2012-01-09 08:01:34 51°14.195 2°55.372 13.2866 0.073451 0.38593 -2.458615
2012-01-09 08:01:39 51°14.206 2°55.362 13.247 0.073451 0.385937 -2.458615
2012-01-09 08:01:44 51°14.216 2°55.352 13.2868 0.073451 0.385937 -2.458615
2012-01-09 08:01:49 51°14.227 2°55.341 13.2424 0.073451 0.385943 -2.458615
2012-01-09 08:01:54 51°14.238 2°55.33 13.3002 0.073451 0.38595 -2.458615
2012-01-09 08:01:59 51°14.249 2°55.32 13.2291 0.073451 0.38595 -2.458615
2012-01-09 08:02:04 51°14.261 2°55.309 13.3005 0.073451 0.385956 -2.458615
2012-01-09 08:02:09 51°14.272 2°55.297 13.2354 0.073451 0.385969 -2.458615
2012-01-09 08:02:14 51°14.283 2°55.286 13.181 0.073451 0.385975 -2.458615
2012-01-09 08:02:19 51°14.295 2°55.275 13.2397 0.073451 0.385975 -2.458615
2012-01-09 08:02:24 51°14.307 2°55.264 13.2065 0.073451 0.385982 -2.458615
2012-01-09 08:02:29 51°14.319 2°55.252 13.1284 0.073451 0.385982 -2.458615
2012-01-09 08:02:34 51°14.331 2°55.24 13.1992 0.073451 0.385982 -2.458615
2012-01-09 08:02:39 51°14.343 2°55.229 13.1852 0.073451 0.385982 -2.458615
2012-01-09 08:02:44 51°14.355 2°55.217 13.2224 0.073451 0.385988 -2.458615
2012-01-09 08:02:49 51°14.368 2°55.205 13.1039 0.073451 0.385995 -2.458615
2012-01-09 08:02:54 51°14.38 2°55.194 13.1988 0.073451 0.385995 -2.458615
2012-01-09 08:02:59 51°14.393 2°55.182 13.1999 0.073451 0.385995 -2.458615
2012-01-09 08:03:04 51°14.406 2°55.171 13.1415 0.073451 0.386001 -2.458615
2012-01-09 08:03:09 51°14.419 2°55.16 13.2314 0.073451 0.386008 -2.458615
2012-01-09 08:03:14 51°14.432 2°55.149 13.1821 0.073451 0.386008 -2.458615
2012-01-09 08:03:19 51°14.445 2°55.136 13.2302 0.073451 0.386014 -2.458615
2012-01-09 08:03:24 51°14.458 2°55.123 13.0445 0.073451 0.386014 -2.458615
2012-01-09 08:03:29 51°14.47 2°55.11 13.1546 0.073451 0.386014 -2.458615
2012-01-09 08:03:34 51°14.483 2°55.098 13.1492 0.073451 0.386021 -2.458615
2012-01-09 08:03:39 51°14.496 2°55.085 13.0717 0.073451 0.386021 -2.458615
2012-01-09 08:03:44 51°14.509 2°55.072 13.1444 0.073451 0.386027 -2.458615
2012-01-09 08:03:49 51°14.522 2°55.059 13.0945 0.073451 0.386034 -2.458615
2012-01-09 08:03:54 51°14.534 2°55.046 13.0606 0.073451 0.38604 -2.458615
2012-01-09 08:03:58 51°14.544 2°55.035 13.0993 0.073451 0.38604 -2.458615
2012-01-09 08:04:04 51°14.559 2°55.017 13.1258 0.073451 0.386047 -2.458615
2012-01-09 08:04:09 51°14.571 2°55.003 13.1331 0.073451 0.386053 -2.458615
2012-01-09 08:04:13 51°14.581 2°54.99 13.1143 0.073451 0.386053 -2.458615
2012-01-09 08:04:18 51°14.593 2°54.975 13.0921 0.073451 0.386053 -2.458615
2012-01-09 08:04:23 51°14.606 2°54.96 13.0463 0.073451 0.386053 -2.458615
2012-01-09 08:04:28 51°14.618 2°54.944 13.0601 0.073451 0.386053 -2.458615
2012-01-09 08:04:33 51°14.631 2°54.928 13.0029 0.073451 0.386059 -2.458615
2012-01-09 08:04:37 51°14.641 2°54.915 12.9935 0.073451 0.386053 -2.458615
2012-01-09 08:04:42 51°14.654 2°54.9 13.0602 0.073451 0.386066 -2.458615
2012-01-09 08:04:47 51°14.667 2°54.883 13.068 0.073451 0.386059 -2.458615
2012-01-09 08:04:52 51°14.68 2°54.867 13.0688 0.073451 0.386072 -2.458615
2012-01-09 08:04:57 51°14.693 2°54.85 13.013 0.073451 0.386072 -2.458615
2012-01-09 08:05:01 51°14.703 2°54.837 13.0642 0.073451 0.386072 -2.458615
2012-01-09 08:05:06 51°14.716 2°54.822 12.9761 0.073451 0.386079 -2.458615
2012-01-09 08:05:11 51°14.729 2°54.805 13.0568 0.073451 0.386085 -2.458615
2012-01-09 08:05:16 51°14.742 2°54.789 12.9793 0.073349 0.385534 -2.458615
2012-01-09 08:05:21 51°14.755 2°54.774 13.024 0.073349 0.385534 -2.458615
2012-01-09 08:05:25 51°14.766 2°54.761 13.0436 0.073349 0.385534 -2.458615
2012-01-09 08:05:31 51°14.782 2°54.742 12.9923 0.073451 0.386098 -2.458615
2012-01-09 08:05:35 51°14.793 2°54.73 13.0221 0.073349 0.38554 -2.458615
2012-01-09 08:05:41 51°14.809 2°54.711 13.0359 0.073349 0.385553 -2.458615
2012-01-09 08:05:45 51°14.82 2°54.699 13.0439 0.073451 0.386111 -2.458615
2012-01-09 08:05:51 51°14.836 2°54.681 13.0321 0.073349 0.385553 -2.458615
2012-01-09 08:05:56 51°14.85 2°54.666 12.9892 0.073349 0.385553 -2.458615
2012-01-09 08:06:01 51°14.863 2°54.651 13.0137 0.073451 0.386118 -2.458615
2012-01-09 08:06:07 51°14.88 2°54.634 13.0157 0.073451 0.386124 -2.458615
2012-01-09 08:06:13 51°14.897 2°54.616 13.0473 0.073451 0.386124 -2.458615
2012-01-09 08:06:18 51°14.91 2°54.601 13.0671 0.073349 0.385573 -2.458615
2012-01-09 08:06:24 51°14.927 2°54.583 13.0413 0.073451 0.386144 -2.458615
2012-01-09 08:06:29 51°14.94 2°54.568 13.034 0.073451 0.386144 -2.458615
2012-01-09 08:06:34 51°14.952 2°54.551 13.0612 0.073349 0.385586 -2.458615
2012-01-09 08:06:39 51°14.965 2°54.534 13.0886 0.073349 0.385592 -2.458615
2012-01-09 08:06:44 51°14.976 2°54.516 13.0828 0.073349 0.385605 -2.458615
2012-01-09 08:06:49 51°14.987 2°54.496 13.0823 0.073349 0.385618 -2.458615
2012-01-09 08:06:53 51°14.995 2°54.479 13.0526 0.073349 0.385611 -2.458615
2012-01-09 08:06:58 51°15.004 2°54.458 13.0793 0.073349 0.385611 -2.458615
2012-01-09 08:07:03 51°15.013 2°54.435 13.0603 0.073349 0.385624 -2.458615
2012-01-09 08:07:08 51°15.021 2°54.412 13.0658 0.073349 0.385624 -2.458615
2012-01-09 08:07:13 51°15.028 2°54.389 13.0765 0.073349 0.385631 -2.458615
2012-01-09 08:07:17 51°15.034 2°54.369 13.0408 0.073349 0.385624 -2.458615
2012-01-09 08:07:22 51°15.04 2°54.345 13.0035 0.073349 0.385624 -2.458615
2012-01-09 08:07:27 51°15.047 2°54.321 13.044 0.073349 0.385624 -2.458615
2012-01-09 08:07:32 51°15.053 2°54.297 13.037 0.073349 0.385624 -2.458615
2012-01-09 08:07:37 51°15.059 2°54.272 13.052 0.073349 0.385624 -2.458615
2012-01-09 08:07:42 51°15.064 2°54.248 13.0482 0.073349 0.385631 -2.458615
2012-01-09 08:07:46 51°15.069 2°54.228 13.0349 0.073349 0.385644 -2.458615
2012-01-09 08:07:51 51°15.074 2°54.204 13.05 0.073349 0.385644 -2.458615
2012-01-09 08:07:56 51°15.079 2°54.179 13.0295 0.073349 0.385644 -2.458615
2012-01-09 08:08:01 51°15.085 2°54.153 13.0158 0.073349 0.38565 -2.458615
2012-01-09 08:08:06 51°15.089 2°54.128 13.0538 0.073349 0.385657 -2.458615
2012-01-09 08:08:11 51°15.094 2°54.102 13.0539 0.073349 0.38567 -2.458615
2012-01-09 08:08:16 51°15.098 2°54.076 13.0368 0.073349 0.38567 -2.458615
2012-01-09 08:08:21 51°15.102 2°54.05 13.0051 0.073349 0.38567 -2.458615
2012-01-09 08:08:25 51°15.105 2°54.029 13.0296 0.073349 0.38567 -2.458615
2012-01-09 08:08:31 51°15.109 2°53.997 13.0071 0.073349 0.38567 -2.458615
2012-01-09 08:08:36 51°15.114 2°53.97 13.0022 0.073349 0.38567 -2.458615
2012-01-09 08:08:41 51°15.118 2°53.944 12.9871 0.073349 0.38567 -2.458615
2012-01-09 08:08:45 51°15.122 2°53.924 12.9926 0.073349 0.385676 -2.458615
2012-01-09 08:08:51 51°15.128 2°53.892 13.0369 0.073349 0.385682 -2.458615
2012-01-09 08:08:56 51°15.133 2°53.866 13.019 0.073349 0.385682 -2.458615
2012-01-09 08:09:01 51°15.138 2°53.84 13.0255 0.073349 0.385695 -2.458615
2012-01-09 08:09:05 51°15.143 2°53.82 13.0372 0.073349 0.385702 -2.458615
2012-01-09 08:09:11 51°15.149 2°53.789 13.03 0.073349 0.385715 -2.458615
2012-01-09 08:09:16 51°15.154 2°53.763 13.022 0.073349 0.385721 -2.458615
2012-01-09 08:09:21 51°15.159 2°53.738 13.01 0.073349 0.385721 -2.458615
2012-01-09 08:09:25 51°15.163 2°53.717 13.0281 0.073349 0.385721 -2.458615
2012-01-09 08:09:31 51°15.17 2°53.687 13.0319 0.073349 0.385728 -2.458615
2012-01-09 08:09:36 51°15.175 2°53.661 13.031 0.073349 0.385734 -2.458615
2012-01-09 08:09:41 51°15.18 2°53.635 13.024 0.073349 0.385741 -2.458615
2012-01-09 08:09:45 51°15.184 2°53.615 13.0392 0.073349 0.385734 -2.458615
2012-01-09 08:09:51 51°15.19 2°53.584 13.038 0.073349 0.385741 -2.458615
2012-01-09 08:09:55 51°15.194 2°53.563 13.0297 0.073349 0.385741 -2.458615
2012-01-09 08:10:01 51°15.2 2°53.532 12.9839 0.073349 0.385754 -2.458615
2012-01-09 08:10:05 51°15.204 2°53.511 13.039 0.073349 0.385754 -2.458615
2012-01-09 08:10:11 51°15.209 2°53.48 13.0599 0.073349 0.38576 -2.458615
2012-01-09 08:10:16 51°15.213 2°53.454 13.0422 0.073349 0.385773 -2.458615
2012-01-09 08:10:21 51°15.217 2°53.427 13.0539 0.073349 0.385786 -2.458615
2012-01-09 08:10:26 51°15.22 2°53.401 13.0631 0.073349 0.385786 -2.458615
2012-01-09 08:10:31 51°15.222 2°53.373 13.0258 0.073349 0.385792 -2.458615
2012-01-09 08:10:35 51°15.224 2°53.352 13.0287 0.073349 0.385792 -2.458615
2012-01-09 08:10:41 51°15.226 2°53.319 13.0273 0.073349 0.385786 -2.458615
2012-01-09 08:10:45 51°15.227 2°53.297 13.0297 0.073349 0.385792 -2.458615
2012-01-09 08:10:51 51°15.228 2°53.264 13.0146 0.073349 0.385792 -2.458615
2012-01-09 08:10:56 51°15.229 2°53.237 13.0201 0.073349 0.385792 -2.458615
2012-01-09 08:11:01 51°15.23 2°53.209 13.0375 0.073349 0.385792 -2.458615
2012-01-09 08:11:05 51°15.231 2°53.187 13.0422 0.073349 0.385799 -2.458615
2012-01-09 08:11:11 51°15.232 2°53.154 13.0647 0.073349 0.385805 -2.458615
2012-01-09 08:11:16 51°15.233 2°53.127 10.6936 0.073349 0.385812 -2.458615
2012-01-09 08:11:21 51°15.233 2°53.099 9.6281 0.073349 0.385818 -2.458615
2012-01-09 08:11:25 51°15.233 2°53.077 9.6363 0.073349 0.385818 -2.458615
2012-01-09 08:11:31 51°15.234 2°53.044 12.3247 0.073349 0.385831 -2.458615
2012-01-09 08:11:36 51°15.234 2°53.016 12.4838 0.073349 0.385851 -2.458615
2012-01-09 08:11:41 51°15.234 2°52.989 10.4099 0.086612 0.459837 -2.458615
2012-01-09 08:11:45 51°15.235 2°52.967 9.3252 0.397837 2.277683 -2.458615
2012-01-09 08:11:51 51°15.236 2°52.934 8.8693 0.652326 3.891825 -2.458615
2012-01-09 08:11:56 51°15.237 2°52.906 8.6085 0.652326 3.891825 -2.458615
2012-01-09 08:12:01 51°15.238 2°52.879 8.5027 1.128104 7.435723 -2.458615
2012-01-09 08:12:05 51°15.239 2°52.857 8.3939 1.852739 13.466609 -2.458615
2012-01-09 08:12:11 51°15.241 2°52.824 8.3308 2.342075 18.417787 -2.458615
2012-01-09 08:12:16 51°15.243 2°52.797 8.2765 2.471416 20.349665 -2.458615
2012-01-09 08:12:21 51°15.245 2°52.769 8.2196 2.756237 23.716141 -2.458615
2012-01-09 08:12:26 51°15.247 2°52.742 8.2124 2.756237 23.716141 -2.458615
2012-01-09 08:12:31 51°15.25 2°52.715 8.1912 3.041632 26.872628 -2.458615
2012-01-09 08:12:35 51°15.252 2°52.693 8.1476 3.286215 29.860078 -2.458615
2012-01-09 08:12:41 51°15.255 2°52.661 8.1335 3.401099 31.31562 -2.458615
2012-01-09 08:12:45 51°15.257 2°52.639 8.137 3.432156 31.865712 -2.458615
2012-01-09 08:12:51 51°15.26 2°52.606 8.1567 3.446754 32.205864 -2.458615
2012-01-09 08:12:56 51°15.262 2°52.579 8.1107 3.446754 32.205864 -2.458615
2012-01-09 08:13:01 51°15.264 2°52.552 8.1128 3.449033 32.335259 -2.458615
2012-01-09 08:13:05 51°15.266 2°52.53 8.0893 3.449862 32.434558 -2.458615
2012-01-09 08:13:11 51°15.269 2°52.497 8.0818 3.452658 32.527337 -2.458615
2012-01-09 08:13:16 51°15.271 2°52.47 8.0663 3.45535 32.609304 -2.458615
2012-01-09 08:13:21 51°15.273 2°52.443 8.0898 3.456282 32.648585 -2.458615
2012-01-09 08:13:25 51°15.274 2°52.42 8.0697 3.456282 32.648585 -2.458615
2012-01-09 08:13:31 51°15.276 2°52.387 8.0676 3.450899 32.623343 -2.458615
2012-01-09 08:13:36 51°15.278 2°52.359 8.064 3.452245 32.67045 -2.458615
2012-01-09 08:13:41 51°15.279 2°52.332 8.0555 3.456904 32.744861 -2.458615
2012-01-09 08:13:45 51°15.281 2°52.31 8.0421 3.462702 32.826278 -2.458615
2012-01-09 08:13:51 51°15.283 2°52.277 8.0481 3.470673 32.92987 -2.458615
2012-01-09 08:13:56 51°15.285 2°52.249 8.0572 3.470673 32.92987 -2.458615
2012-01-09 08:14:01 51°15.287 2°52.221 8.0549 3.472226 32.955649 -2.458615
2012-01-09 08:14:05 51°15.288 2°52.199 8.0456 3.472537 32.979489 -2.458615
2012-01-09 08:14:11 51°15.29 2°52.166 8.0461 3.474918 33.015765 -2.458615
2012-01-09 08:14:16 51°15.291 2°52.137 8.0323 3.476989 33.044492 -2.458615
2012-01-09 08:14:21 51°15.293 2°52.109 8.021 3.478956 33.077305 -2.458615
2012-01-09 08:14:25 51°15.294 2°52.087 8.0201 3.478956 33.077305 -2.458615
2012-01-09 08:14:31 51°15.297 2°52.053 8.0226 3.476782 33.065534 -2.458615
2012-01-09 08:14:36 51°15.298 2°52.025 8.0192 3.473676 33.04047 -2.458615
2012-01-09 08:14:41 51°15.3 2°51.997 8.025 3.481441 33.127689 -2.458615
2012-01-09 08:14:45 51°15.3 2°51.974 8.0142 3.480302 33.125144 -2.458615
2012-01-09 08:14:51 51°15.302 2°51.94 8.0138 3.482994 33.159652 -2.458615
2012-01-09 08:14:56 51°15.303 2°51.912 8.0094 3.482994 33.159652 -2.458615
2012-01-09 08:15:01 51°15.304 2°51.884 8.0115 3.482994 33.173485 -2.458615
2012-01-09 08:15:06 51°15.305 2°51.855 8.0054 3.485064 33.200587 -2.458615
2012-01-09 08:15:11 51°15.305 2°51.827 8.0168 3.485996 33.216512 -2.458615
2012-01-09 08:15:15 51°15.304 2°51.804 8.0083 3.48641 33.227829 -2.458615
2012-01-09 08:15:21 51°15.304 2°51.77 8.0003 3.48993 33.265968 -2.458615
2012-01-09 08:15:25 51°15.303 2°51.747 8.0015 3.48993 33.265968 -2.458615
2012-01-09 08:15:31 51°15.3 2°51.713 7.9974 3.48993 33.271177 -2.458615
2012-01-09 08:15:36 51°15.298 2°51.684 8.0003 3.488274 33.257973 -2.458615
2012-01-09 08:15:41 51°15.296 2°51.655 7.9979 3.492726 33.309477 -2.458615
2012-01-09 08:15:45 51°15.294 2°51.632 7.9943 3.490655 33.292754 -2.458615
2012-01-09 08:15:51 51°15.292 2°51.598 7.9987 3.494382 33.339214 -2.458615
2012-01-09 08:15:56 51°15.29 2°51.569 7.9947 3.494382 33.339214 -2.458615
2012-01-09 08:16:01 51°15.289 2°51.54 7.9983 3.495211 33.351477 -2.458615
2012-01-09 08:16:05 51°15.288 2°51.517 7.9978 3.496557 33.370104 -2.458615
2012-01-09 08:16:11 51°15.287 2°51.482 7.9947 3.495625 33.358481 -2.458615
2012-01-09 08:16:16 51°15.285 2°51.453 7.9933 3.496764 33.374043 -2.458615
2012-01-09 08:16:21 51°15.284 2°51.425 7.9977 3.496764 33.378403 -2.458615
2012-01-09 08:16:25 51°15.282 2°51.402 7.993 3.496764 33.378403 -2.458615
2012-01-09 08:16:31 51°15.279 2°51.368 7.9929 3.497488 33.387834 -2.458615
2012-01-09 08:16:36 51°15.276 2°51.339 7.9862 3.498731 33.401885 -2.458615
2012-01-09 08:16:41 51°15.273 2°51.311 7.9829 3.496867 33.383862 -2.458615
2012-01-09 08:16:46 51°15.269 2°51.283 7.9865 3.48579 33.268997 -2.458615
2012-01-09 08:16:51 51°15.265 2°51.254 7.9898 3.487032 33.283039 -2.458615
2012-01-09 08:16:55 51°15.261 2°51.232 7.989 3.487032 33.283039 -2.458615
2012-01-09 08:17:01 51°15.256 2°51.198 7.986 3.502976 33.456533 -2.458615
2012-01-09 08:17:05 51°15.252 2°51.175 7.9949 3.503908 33.469046 -2.458615
2012-01-09 08:17:11 51°15.246 2°51.141 7.9924 3.504529 33.478265 -2.458615
2012-01-09 08:17:16 51°15.242 2°51.113 7.989 3.50515 33.490113 -2.458615
2012-01-09 08:17:21 51°15.237 2°51.085 7.9864 3.505461 33.495162 -2.458615
2012-01-09 08:17:25 51°15.233 2°51.063 7.9889 3.505461 33.495162 -2.458615
2012-01-09 08:17:31 51°15.227 2°51.029 7.9959 3.506082 33.500882 -2.458615
2012-01-09 08:17:36 51°15.222 2°51 7.9903 3.506496 33.506155 -2.458615
2012-01-09 08:17:41 51°15.218 2°50.972 7.9891 3.506496 33.506155 -2.458615
2012-01-09 08:17:46 51°15.213 2°50.944 7.9874 3.505771 33.497584 -2.458615
2012-01-09 08:17:51 51°15.208 2°50.915 7.9888 3.505668 33.499112 -2.458615
2012-01-09 08:17:56 51°15.204 2°50.887 7.9886 3.505668 33.499112 -2.458615
2012-01-09 08:18:01 51°15.2 2°50.858 7.9946 3.506599 33.509007 -2.458615
2012-01-09 08:18:05 51°15.197 2°50.836 7.9873 3.506185 33.504609 -2.458615
2012-01-09 08:18:11 51°15.192 2°50.802 7.9962 3.504529 33.487896 -2.458615
2012-01-09 08:18:16 51°15.189 2°50.773 7.9868 3.504943 33.492293 -2.458615
2012-01-09 08:18:21 51°15.185 2°50.745 7.9972 3.505771 33.50284 -2.458615
2012-01-09 08:18:25 51°15.183 2°50.722 7.9958 3.505771 33.50284 -2.458615
2012-01-09 08:18:31 51°15.178 2°50.688 7.9999 3.507428 33.520432 -2.458615
2012-01-09 08:18:36 51°15.174 2°50.659 7.9889 3.50339 33.47843 -2.458615
2012-01-09 08:18:41 51°15.171 2°50.631 7.9898 3.504632 33.491623 -2.458615
2012-01-09 08:18:46 51°15.167 2°50.602 7.9879 3.502562 33.46876 -2.458615
2012-01-09 08:18:51 51°15.163 2°50.574 7.9871 3.504011 33.485026 -2.458615
2012-01-09 08:18:56 51°15.16 2°50.545 7.9949 3.504011 33.485026 -2.458615
2012-01-09 08:19:01 51°15.156 2°50.516 7.9913 3.50339 33.479305 -2.458615
2012-01-09 08:19:05 51°15.153 2°50.493 7.9839 3.502458 33.468536 -2.458615
2012-01-09 08:19:11 51°15.149 2°50.459 7.9908 3.502872 33.474684 -2.458615
2012-01-09 08:19:16 51°15.145 2°50.431 7.9886 3.504322 33.492704 -2.458615
2012-01-09 08:19:21 51°15.141 2°50.402 7.9857 3.50339 33.483684 -2.458615
2012-01-09 08:19:25 51°15.137 2°50.38 7.9843 3.50339 33.483684 -2.458615
2012-01-09 08:19:31 51°15.131 2°50.346 7.9887 3.503597 33.486759 -2.458615
2012-01-09 08:19:36 51°15.126 2°50.319 7.9877 3.503287 33.483461 -2.458615
2012-01-09 08:19:41 51°15.121 2°50.291 7.9891 3.503804 33.489835 -2.458615
2012-01-09 08:19:45 51°15.117 2°50.269 7.99 3.503494 33.487412 -2.458615
2012-01-09 08:19:51 51°15.111 2°50.235 7.9864 3.503597 33.492892 -2.458615
2012-01-09 08:19:55 51°15.106 2°50.213 7.9895 3.503597 33.492892 -2.458615
2012-01-09 08:20:01 51°15.1 2°50.18 7.9872 3.504633 33.503891 -2.458615
2012-01-09 08:20:05 51°15.096 2°50.157 7.9932 3.504115 33.500144 -2.458615
2012-01-09 08:20:11 51°15.089 2°50.124 7.9938 3.504218 33.501244 -2.458615
2012-01-09 08:20:16 51°15.084 2°50.096 7.9913 3.50484 33.50872 -2.458615
2012-01-09 08:20:21 51°15.079 2°50.068 7.9932 3.504943 33.508944 -2.458615
2012-01-09 08:20:25 51°15.075 2°50.045 7.9912 3.504943 33.508944 -2.458615
2012-01-09 08:20:31 51°15.07 2°50.011 7.9911 3.504218 33.501244 -2.458615
2012-01-09 08:20:36 51°15.066 2°49.983 7.9928 3.504426 33.504321 -2.458615
2012-01-09 08:20:41 51°15.062 2°49.954 7.9886 3.50515 33.51202 -2.458615
2012-01-09 08:20:45 51°15.059 2°49.931 7.9893 3.505357 33.512466 -2.458615
2012-01-09 08:20:51 51°15.055 2°49.897 7.9893 3.50515 33.50939 -2.458615
2012-01-09 08:20:56 51°15.051 2°49.869 7.9955 3.50515 33.50939 -2.458615
2012-01-09 08:21:01 51°15.048 2°49.84 7.9918 3.505254 33.51049 -2.458615
2012-01-09 08:21:05 51°15.046 2°49.817 7.9869 3.508153 33.543043 -2.458615
2012-01-09 08:21:11 51°15.042 2°49.782 7.991 3.50867 33.547666 -2.458615
2012-01-09 08:21:16 51°15.039 2°49.754 7.9876 3.51043 33.567246 -2.458615
2012-01-09 08:21:21 51°15.037 2°49.725 7.9934 3.509706 33.559545 -2.458615
2012-01-09 08:21:25 51°15.035 2°49.702 7.9951 3.509706 33.559545 -2.458615
2012-01-09 08:21:31 51°15.033 2°49.668 8.0008 3.509291 33.555144 -2.458615
2012-01-09 08:21:36 51°15.031 2°49.639 7.9966 3.507738 33.538643 -2.458615
2012-01-09 08:21:41 51°15.029 2°49.611 7.9966 3.507946 33.541721 -2.458615
2012-01-09 08:21:45 51°15.028 2°49.588 7.9984 3.509499 33.559979 -2.458615
2012-01-09 08:21:51 51°15.027 2°49.554 7.9978 3.509395 33.559757 -2.458615
2012-01-09 08:21:55 51°15.025 2°49.532 7.9974 3.509395 33.559757 -2.458615
2012-01-09 08:22:01 51°15.024 2°49.498 7.992 3.509913 33.563502 -2.458615
2012-01-09 08:22:05 51°15.023 2°49.476 7.992 3.508877 33.550744 -2.458615
2012-01-09 08:22:11 51°15.021 2°49.442 7.9916 3.50867 33.547666 -2.458615
2012-01-09 08:22:16 51°15.019 2°49.414 7.9916 3.508981 33.550966 -2.458615
2012-01-09 08:22:21 51°15.018 2°49.386 7.9935 3.50836 33.544366 -2.458615
2012-01-09 08:22:25 51°15.016 2°49.363 7.9942 3.50836 33.544366 -2.458615
2012-01-09 08:22:31 51°15.015 2°49.33 7.9922 3.508256 33.543265 -2.458615
2012-01-09 08:22:36 51°15.014 2°49.301 7.9977 3.508981 33.5536 -2.458615
2012-01-09 08:22:41 51°15.013 2°49.273 7.9983 3.508981 33.555356 -2.458615
2012-01-09 08:22:45 51°15.014 2°49.251 7.9952 3.508774 33.554034 -2.458615
2012-01-09 08:22:51 51°15.014 2°49.217 7.9981 3.509395 33.560635 -2.458615
2012-01-09 08:22:56 51°15.014 2°49.189 8.0012 3.509395 33.560635 -2.458615
2012-01-09 08:23:01 51°15.014 2°49.161 8.0029 3.509188 33.557557 -2.458615
2012-01-09 08:23:05 51°15.014 2°49.139 8.0019 3.509188 33.557557 -2.458615
2012-01-09 08:23:11 51°15.014 2°49.105 7.9999 3.508877 33.553378 -2.458615
2012-01-09 08:23:16 51°15.014 2°49.077 7.9962 3.509084 33.553822 -2.458615
2012-01-09 08:23:21 51°15.014 2°49.049 8.0019 3.508877 33.5525 -2.458615
2012-01-09 08:23:26 51°15.014 2°49.021 7.9992 3.508877 33.5525 -2.458615
2012-01-09 08:23:31 51°15.014 2°48.993 7.9942 3.508774 33.5514 -2.458615
2012-01-09 08:23:35 51°15.014 2°48.97 7.9963 3.50836 33.544366 -2.458615
2012-01-09 08:23:41 51°15.014 2°48.937 8.0009 3.507842 33.539743 -2.458615
2012-01-09 08:23:45 51°15.013 2°48.915 7.9982 3.508463 33.546343 -2.458615
2012-01-09 08:23:51 51°15.013 2°48.881 7.9986 3.50867 33.550299 -2.458615
2012-01-09 08:23:56 51°15.013 2°48.853 7.9994 3.50867 33.550299 -2.458615
2012-01-09 08:24:01 51°15.012 2°48.824 7.9983 3.508981 33.554478 -2.458615
2012-01-09 08:24:05 51°15.012 2°48.802 7.9993 3.509292 33.557779 -2.458615
2012-01-09 08:24:11 51°15.011 2°48.768 8.0002 3.509809 33.565036 -2.458615
2012-01-09 08:24:16 51°15.011 2°48.74 8 3.509602 33.561958 -2.458615
2012-01-09 08:24:21 51°15.01 2°48.712 8.0024 3.509809 33.565036 -2.458615
2012-01-09 08:24:26 51°15.01 2°48.684 8.0033 3.509809 33.565036 -2.458615
2012-01-09 08:24:31 51°15.009 2°48.656 8.0086 3.509706 33.563058 -2.458615
2012-01-09 08:24:36 51°15.009 2°48.628 8.0114 3.509809 33.564158 -2.458615
2012-01-09 08:24:41 51°15.008 2°48.6 8.0084 3.51043 33.57076 -2.458615
2012-01-09 08:24:45 51°15.008 2°48.577 8.006 3.510948 33.575383 -2.458615
2012-01-09 08:24:51 51°15.007 2°48.543 8.0065 3.510534 33.570982 -2.458615
2012-01-09 08:24:56 51°15.006 2°48.515 8.0104 3.510534 33.570982 -2.458615
2012-01-09 08:25:01 51°15.006 2°48.487 8.0071 3.510741 33.572304 -2.458615
2012-01-09 08:25:05 51°15.005 2°48.465 8.0079 3.511362 33.576269 -2.458615
2012-01-09 08:25:11 51°15.004 2°48.431 8.0091 3.51043 33.564611 -2.458615
2012-01-09 08:25:16 51°15.003 2°48.403 8.0135 3.511776 33.578034 -2.458615
2012-01-09 08:25:21 51°15.002 2°48.375 8.0126 3.511983 33.581113 -2.458615
2012-01-09 08:25:25 51°15.001 2°48.353 8.0172 3.511983 33.581113 -2.458615
2012-01-09 08:25:31 51°15 2°48.319 8.0179 3.513122 33.593216 -2.458615
2012-01-09 08:25:36 51°14.998 2°48.291 8.0202 3.513433 33.595637 -2.458615
2012-01-09 08:25:41 51°14.997 2°48.264 8.0185 3.51395 33.602018 -2.458615
2012-01-09 08:25:45 51°14.995 2°48.241 8.0237 3.514157 33.603339 -2.458615
2012-01-09 08:25:51 51°14.994 2°48.207 8.0245 3.513743 33.598059 -2.458615
2012-01-09 08:25:56 51°14.992 2°48.179 8.0237 3.513743 33.598059 -2.458615
2012-01-09 08:26:01 51°14.99 2°48.151 8.0279 3.514468 33.604002 -2.458615
2012-01-09 08:26:05 51°14.989 2°48.129 8.0277 3.515089 33.607966 -2.458615
2012-01-09 08:26:11 51°14.987 2°48.095 8.0311 3.515503 33.611487 -2.458615
2012-01-09 08:26:16 51°14.985 2°48.067 8.0324 3.5154 33.608628 -2.458615
2012-01-09 08:26:21 51°14.984 2°48.039 8.0311 3.51571 33.61017 -2.458615
2012-01-09 08:26:26 51°14.982 2°48.011 8.0316 3.51571 33.61017 -2.458615
2012-01-09 08:26:31 51°14.981 2°47.983 8.0329 3.516124 33.612812 -2.458615
2012-01-09 08:26:35 51°14.98 2°47.96 8.0311 3.516435 33.616112 -2.458615
2012-01-09 08:26:41 51°14.978 2°47.927 8.0351 3.516228 33.611275 -2.458615
2012-01-09 08:26:46 51°14.976 2°47.898 8.0348 3.517056 33.618316 -2.458615
2012-01-09 08:26:51 51°14.975 2°47.87 8.0324 3.517056 33.617437 -2.458615
2012-01-09 08:26:56 51°14.974 2°47.842 8.036 3.517056 33.617437 -2.458615
2012-01-09 08:27:01 51°14.973 2°47.814 8.0358 3.51747 33.621836 -2.458615
2012-01-09 08:27:05 51°14.971 2°47.791 8.0406 3.517781 33.624257 -2.458615
2012-01-09 08:27:11 51°14.97 2°47.757 8.0385 3.513122 33.57389 -2.458615
2012-01-09 08:27:16 51°14.969 2°47.729 8.0415 3.520783 33.654395 -2.458615
2012-01-09 08:27:21 51°14.968 2°47.701 8.0427 3.521612 33.662315 -2.458615
2012-01-09 08:27:25 51°14.967 2°47.678 8.0467 3.521612 33.662315 -2.458615
2012-01-09 08:27:30 51°14.967 2°47.65 8.0388 3.522543 33.672215 -2.458615
2012-01-09 08:27:36 51°14.965 2°47.616 8.0406 3.522958 33.676615 -2.458615
2012-01-09 08:27:41 51°14.964 2°47.588 8.0436 3.523061 33.675954 -2.458615
2012-01-09 08:27:45 51°14.964 2°47.565 8.0467 3.523475 33.678593 -2.458615
2012-01-09 08:27:51 51°14.962 2°47.531 8.0464 3.523786 33.681012 -2.458615
2012-01-09 08:27:56 51°14.961 2°47.503 8.0452 3.523786 33.681012 -2.458615
2012-01-09 08:28:01 51°14.96 2°47.475 8.0475 3.523993 33.682331 -2.458615
2012-01-09 08:28:06 51°14.959 2°47.447 8.0508 3.524614 33.688931 -2.458615
2012-01-09 08:28:11 51°14.959 2°47.419 8.0558 3.524925 33.692231 -2.458615
2012-01-09 08:28:15 51°14.958 2°47.397 8.0502 3.524614 33.68805 -2.458615
2012-01-09 08:28:21 51°14.957 2°47.363 8.0516 3.524718 33.687389 -2.458615
2012-01-09 08:28:25 51°14.957 2°47.34 8.0541 3.524718 33.687389 -2.458615
2012-01-09 08:28:31 51°14.956 2°47.307 8.0573 3.525649 33.696407 -2.458615
2012-01-09 08:28:36 51°14.956 2°47.28 8.0562 3.525546 33.695307 -2.458615
2012-01-09 08:28:41 51°14.955 2°47.252 8.0612 3.526892 33.706963 -2.458615
2012-01-09 08:28:46 51°14.954 2°47.223 8.0602 3.527099 33.707401 -2.458615
2012-01-09 08:28:51 51°14.954 2°47.196 8.0633 3.527306 33.7096 -2.458615
2012-01-09 08:28:56 51°14.953 2°47.168 8.0636 3.527306 33.7096 -2.458615
2012-01-09 08:29:01 51°14.952 2°47.14 8.0674 3.528238 33.718618 -2.458615
2012-01-09 08:29:05 51°14.952 2°47.118 8.069 3.528652 33.721255 -2.458615
2012-01-09 08:29:11 51°14.951 2°47.085 8.0686 3.529687 33.73049 -2.458615
2012-01-09 08:29:16 51°14.95 2°47.057 8.0725 3.529584 33.728509 -2.458615
2012-01-09 08:29:21 51°14.949 2°47.029 8.0718 3.530412 33.735544 -2.458615
2012-01-09 08:29:25 51°14.948 2°47.007 8.0763 3.530412 33.735544 -2.458615
2012-01-09 08:29:31 51°14.947 2°46.974 8.0755 3.530722 33.73708 -2.458615
2012-01-09 08:29:36 51°14.945 2°46.947 8.0761 3.531654 33.745214 -2.458615
2012-01-09 08:29:41 51°14.943 2°46.92 8.0778 3.528445 33.708483 -2.458615
2012-01-09 08:29:45 51°14.941 2°46.898 8.0795 3.522647 33.644285 -2.458615
2012-01-09 08:29:51 51°14.937 2°46.865 8.0807 3.533 33.753338 -2.458615
2012-01-09 08:29:56 51°14.934 2°46.838 8.0819 3.533 33.753338 -2.458615
2012-01-09 08:30:01 51°14.93 2°46.811 8.0869 3.53476 33.770267 -2.458615
2012-01-09 08:30:05 51°14.927 2°46.789 8.0877 3.534967 33.770702 -2.458615
2012-01-09 08:30:11 51°14.922 2°46.757 8.0905 3.535381 33.774218 -2.458615
2012-01-09 08:30:16 51°14.918 2°46.73 8.0938 3.535589 33.775535 -2.458615
2012-01-09 08:30:21 51°14.913 2°46.703 8.0951 3.536313 33.782349 -2.458615
2012-01-09 08:30:25 51°14.91 2°46.681 8.096 3.536313 33.782349 -2.458615
2012-01-09 08:30:31 51°14.904 2°46.649 8.0995 3.536417 33.780802 -2.458615
2012-01-09 08:30:36 51°14.899 2°46.622 8.1023 3.536831 33.783435 -2.458615
2012-01-09 08:30:41 51°14.894 2°46.596 8.1043 3.536831 33.780789 -2.458615
2012-01-09 08:30:46 51°14.889 2°46.568 8.1024 3.536313 33.772647 -2.458615
2012-01-09 08:30:51 51°14.885 2°46.542 8.1045 3.537141 33.778795 -2.458615
2012-01-09 08:30:55 51°14.881 2°46.52 8.1066 3.537141 33.778795 -2.458615
2012-01-09 08:31:01 51°14.875 2°46.488 8.1088 3.537349 33.779229 -2.458615
2012-01-09 08:31:05 51°14.869 2°46.467 8.1053 3.537348 33.776584 -2.458615
2012-01-09 08:31:11 51°14.861 2°46.436 8.1077 3.537659 33.776354 -2.458615
2012-01-09 08:31:16 51°14.853 2°46.41 8.1093 3.538591 33.784482 -2.458615
2012-01-09 08:31:21 51°14.845 2°46.386 8.11 3.539316 33.791292 -2.458615
2012-01-09 08:31:25 51°14.837 2°46.367 8.1111 3.539316 33.791292 -2.458615
2012-01-09 08:31:31 51°14.826 2°46.338 8.1112 3.539212 33.789311 -2.458615
2012-01-09 08:31:36 51°14.816 2°46.315 8.1172 3.539833 33.795023 -2.458615
2012-01-09 08:31:41 51°14.806 2°46.292 8.1138 3.530929 33.700536 -2.458615
2012-01-09 08:31:45 51°14.798 2°46.273 8.116 3.542008 33.816336 -2.458615
2012-01-09 08:31:51 51°14.786 2°46.246 8.1193 3.542111 33.816553 -2.458615
2012-01-09 08:31:56 51°14.776 2°46.222 8.1189 3.542111 33.816553 -2.458615
2012-01-09 08:32:01 51°14.766 2°46.199 8.1192 3.542318 33.817868 -2.458615
2012-01-09 08:32:05 51°14.757 2°46.181 8.12 3.542525 33.819184 -2.458615
2012-01-09 08:32:11 51°14.746 2°46.153 8.1184 3.542422 33.815438 -2.458615
2012-01-09 08:32:16 51°14.736 2°46.13 8.1158 3.542008 33.81016 -2.458615
2012-01-09 08:32:21 51°14.727 2°46.107 8.115 3.542215 33.810594 -2.458615
2012-01-09 08:32:25 51°14.718 2°46.089 8.1186 3.542215 33.810594 -2.458615
2012-01-09 08:32:31 51°14.705 2°46.061 8.1169 3.542525 33.811243 -2.458615
2012-01-09 08:32:35 51°14.697 2°46.042 8.1151 3.542422 33.809263 -2.458615
2012-01-09 08:32:41 51°14.686 2°46.014 8.1177 3.543353 33.818268 -2.458615
2012-01-09 08:32:45 51°14.678 2°45.995 8.1105 3.54325 33.818052 -2.458615
2012-01-09 08:32:51 51°14.666 2°45.967 8.115 3.54325 33.818934 -2.458615
2012-01-09 08:32:56 51°14.656 2°45.944 8.1052 3.54325 33.818934 -2.458615
2012-01-09 08:33:01 51°14.647 2°45.921 8.1076 3.542939 33.814756 -2.458615
2012-01-09 08:33:05 51°14.639 2°45.902 8.105 3.542215 33.807947 -2.458615
2012-01-09 08:33:11 51°14.627 2°45.874 8.1025 3.541904 33.804652 -2.458615
2012-01-09 08:33:16 51°14.617 2°45.851 8.1037 3.542007 33.806632 -2.458615
2012-01-09 08:33:21 51°14.607 2°45.828 8.0975 3.541593 33.803119 -2.458615
2012-01-09 08:33:26 51°14.598 2°45.804 8.0985 3.541593 33.803119 -2.458615
2012-01-09 08:33:31 51°14.588 2°45.781 8.1002 3.54149 33.803785 -2.458615
2012-01-09 08:33:36 51°14.579 2°45.757 8.0976 3.541283 33.804233 -2.458615
2012-01-09 08:33:41 51°14.569 2°45.734 8.096 3.541179 33.804898 -2.458615
2012-01-09 08:33:45 51°14.562 2°45.715 8.0939 3.540662 33.801168 -2.458615
2012-01-09 08:33:51 51°14.55 2°45.686 8.097 3.54004 33.797221 -2.458615
2012-01-09 08:33:56 51°14.541 2°45.662 8.0913 3.54004 33.797221 -2.458615
2012-01-09 08:34:01 51°14.532 2°45.639 8.0887 3.539419 33.792391 -2.458615
2012-01-09 08:34:05 51°14.525 2°45.62 8.0882 3.539212 33.791957 -2.458615
2012-01-09 08:34:11 51°14.515 2°45.591 8.0887 3.53828 33.782066 -2.458615
2012-01-09 08:34:16 51°14.506 2°45.567 8.0866 3.537245 33.77284 -2.458615
2012-01-09 08:34:21 51°14.496 2°45.543 8.0838 3.536831 33.769326 -2.458615
2012-01-09 08:34:26 51°14.487 2°45.519 8.0822 3.536831 33.769326 -2.458615
2012-01-09 08:34:31 51°14.479 2°45.495 8.081 3.536002 33.762297 -2.458615
2012-01-09 08:34:36 51°14.47 2°45.47 8.0835 3.53621 33.767139 -2.458615
2012-01-09 08:34:41 51°14.461 2°45.447 8.0799 3.535071 33.755931 -2.458615
2012-01-09 08:34:46 51°14.452 2°45.423 8.0817 3.534967 33.756594 -2.458615
2012-01-09 08:34:51 51°14.443 2°45.398 8.082 3.533828 33.746267 -2.458615
2012-01-09 08:34:55 51°14.436 2°45.379 8.0736 3.533828 33.746267 -2.458615
2012-01-09 08:35:01 51°14.424 2°45.351 8.077 3.534242 33.753307 -2.458615
2012-01-09 08:35:06 51°14.415 2°45.327 8.0794 3.533414 33.747157 -2.458615
2012-01-09 08:35:11 51°14.406 2°45.303 8.0752 3.533104 33.743859 -2.458615
2012-01-09 08:35:15 51°14.399 2°45.284 8.0741 3.532379 33.737927 -2.458615
2012-01-09 08:35:21 51°14.389 2°45.255 8.0735 3.531965 33.73353 -2.458615
2012-01-09 08:35:26 51°14.38 2°45.231 8.0719 3.531965 33.73353 -2.458615
2012-01-09 08:35:31 51°14.371 2°45.206 8.0695 3.532068 33.736391 -2.458615
2012-01-09 08:35:36 51°14.361 2°45.183 8.0726 3.531861 33.735955 -2.458615
2012-01-09 08:35:41 51°14.352 2°45.159 8.0674 3.530929 33.726061 -2.458615
2012-01-09 08:35:45 51°14.344 2°45.14 8.0697 3.53124 33.73024 -2.458615
2012-01-09 08:35:51 51°14.333 2°45.112 8.0655 3.530929 33.727823 -2.458615
2012-01-09 08:35:56 51°14.322 2°45.089 8.0679 3.530929 33.727823 -2.458615
2012-01-09 08:36:01 51°14.313 2°45.065 8.0668 3.530515 33.725187 -2.458615
2012-01-09 08:36:05 51°14.305 2°45.047 8.0685 3.529894 33.720353 -2.458615
2012-01-09 08:36:11 51°14.292 2°45.02 8.0716 3.529273 33.713756 -2.458615
2012-01-09 08:36:16 51°14.282 2°44.998 8.0651 3.528859 33.71112 -2.458615
2012-01-09 08:36:21 51°14.272 2°44.974 8.0714 3.528238 33.705404 -2.458615
2012-01-09 08:36:25 51°14.263 2°44.956 8.069 3.528238 33.705404 -2.458615
2012-01-09 08:36:31 51°14.251 2°44.929 8.0701 3.527616 33.699688 -2.458615
2012-01-09 08:36:36 51°14.239 2°44.907 8.0654 3.528238 33.707165 -2.458615
2012-01-09 08:36:41 51°14.229 2°44.885 8.0668 3.52803 33.704086 -2.458615
2012-01-09 08:36:45 51°14.22 2°44.868 8.0715 3.528134 33.706066 -2.458615
2012-01-09 08:36:51 51°14.208 2°44.84 8.0671 3.527823 33.701887 -2.458615
2012-01-09 08:36:56 51°14.198 2°44.818 8.0681 3.527823 33.701887 -2.458615
2012-01-09 08:37:01 51°14.187 2°44.795 8.0676 3.527513 33.698589 -2.458615
2012-01-09 08:37:05 51°14.178 2°44.777 8.0656 3.527513 33.699469 -2.458615
2012-01-09 08:37:11 51°14.166 2°44.75 8.0676 3.527202 33.697051 -2.458615
2012-01-09 08:37:16 51°14.155 2°44.728 8.067 3.527202 33.697051 -2.458615
2012-01-09 08:37:21 51°14.144 2°44.706 8.0679 3.526995 33.693972 -2.458615
2012-01-09 08:37:25 51°14.136 2°44.688 8.0673 3.526995 33.693972 -2.458615
2012-01-09 08:37:31 51°14.123 2°44.661 8.0675 3.526167 33.685177 -2.458615
2012-01-09 08:37:36 51°14.113 2°44.639 8.0702 3.526685 33.690674 -2.458615
2012-01-09 08:37:41 51°14.103 2°44.616 8.0691 3.526788 33.693534 -2.458615
2012-01-09 08:37:45 51°14.094 2°44.598 8.071 3.52627 33.687156 -2.458615
2012-01-09 08:37:51 51°14.082 2°44.571 8.0674 3.526581 33.691335 -2.458615
2012-01-09 08:37:56 51°14.071 2°44.549 8.0726 3.526581 33.691335 -2.458615
2012-01-09 08:38:01 51°14.06 2°44.526 8.0702 3.526685 33.692434 -2.458615
2012-01-09 08:38:05 51°14.052 2°44.508 8.0724 3.525753 33.681659 -2.458615
2012-01-09 08:38:11 51°14.039 2°44.483 8.0742 3.52596 33.683858 -2.458615
2012-01-09 08:38:16 51°14.029 2°44.459 8.0706 3.525856 33.681879 -2.458615
2012-01-09 08:38:21 51°14.018 2°44.437 8.0749 3.525649 33.67968 -2.458615
2012-01-09 08:38:25 51°14.01 2°44.419 8.0742 3.525649 33.67968 -2.458615
2012-01-09 08:38:31 51°13.998 2°44.392 8.0729 3.525442 33.676601 -2.458615
2012-01-09 08:38:36 51°13.987 2°44.369 8.0734 3.529791 33.722777 -2.458615
2012-01-09 08:38:41 51°13.977 2°44.346 8.0757 3.529169 33.714418 -2.458615
2012-01-09 08:38:45 51°13.968 2°44.329 8.0781 3.529687 33.719035 -2.458615
2012-01-09 08:38:51 51°13.956 2°44.301 8.0787 3.529791 33.719253 -2.458615
2012-01-09 08:38:56 51°13.945 2°44.28 8.0799 3.529791 33.719253 -2.458615
2012-01-09 08:39:01 51°13.935 2°44.256 8.0791 3.522647 33.643406 -2.458615
2012-01-09 08:39:05 51°13.927 2°44.238 8.0828 3.52451 33.66319 -2.458615
2012-01-09 08:39:11 51°13.915 2°44.211 8.0847 3.530308 33.725631 -2.458615
2012-01-09 08:39:16 51°13.904 2°44.189 8.0833 3.531033 33.732447 -2.458615
2012-01-09 08:39:21 51°13.894 2°44.166 8.0866 3.531033 33.730684 -2.458615
2012-01-09 08:39:25 51°13.886 2°44.147 8.0857 3.531033 33.730684 -2.458615
2012-01-09 08:39:31 51°13.874 2°44.12 8.0899 3.531654 33.7364 -2.458615
2012-01-09 08:39:36 51°13.864 2°44.096 8.0903 3.531447 33.73332 -2.458615
2012-01-09 08:39:41 51°13.855 2°44.072 8.0937 3.531551 33.732657 -2.458615
2012-01-09 08:39:46 51°13.846 2°44.049 8.0937 3.531654 33.732875 -2.458615
2012-01-09 08:39:51 51°13.837 2°44.024 8.0933 3.531758 33.732212 -2.458615
2012-01-09 08:39:55 51°13.83 2°44.005 8.0959 3.531758 33.732212 -2.458615
2012-01-09 08:40:01 51°13.819 2°43.976 8.0965 3.532482 33.739026 -2.458615
2012-01-09 08:40:05 51°13.811 2°43.958 8.098 3.532379 33.735284 -2.458615
2012-01-09 08:40:11 51°13.799 2°43.929 8.101 3.532482 33.734621 -2.458615
2012-01-09 08:40:16 51°13.788 2°43.907 8.1021 3.533311 33.741652 -2.458615
2012-01-09 08:40:21 51°13.779 2°43.883 8.1044 3.532689 33.735058 -2.458615
2012-01-09 08:40:25 51°13.772 2°43.864 8.1034 3.532689 33.735058 -2.458615
2012-01-09 08:40:31 51°13.759 2°43.836 8.1076 3.534553 33.753961 -2.458615
2012-01-09 08:40:36 51°13.75 2°43.812 8.1076 3.534139 33.748683 -2.458615
2012-01-09 08:40:41 51°13.74 2°43.789 8.1134 3.534657 33.752416 -2.458615
2012-01-09 08:40:45 51°13.733 2°43.77 8.1161 3.531136 33.712411 -2.458615
2012-01-09 08:40:51 51°13.722 2°43.741 8.1196 3.531136 33.710651 -2.458615
2012-01-09 08:40:56 51°13.713 2°43.716 8.1186 3.531136 33.710651 -2.458615
2012-01-09 08:41:01 51°13.705 2°43.692 8.117 3.53124 33.71087 -2.458615
2012-01-09 08:41:05 51°13.698 2°43.673 8.1179 3.531343 33.710208 -2.458615
2012-01-09 08:41:11 51°13.688 2°43.643 8.1201 3.531343 33.708449 -2.458615
2012-01-09 08:41:16 51°13.679 2°43.618 8.1187 3.531861 33.710423 -2.458615
2012-01-09 08:41:21 51°13.671 2°43.593 8.1213 3.53155 33.704488 -2.458615
2012-01-09 08:41:25 51°13.664 2°43.574 8.1212 3.53155 33.704488 -2.458615
2012-01-09 08:41:31 51°13.654 2°43.544 8.1236 3.532379 33.710637 -2.458615
2012-01-09 08:41:35 51°13.646 2°43.526 8.1239 3.532689 33.713052 -2.458615
2012-01-09 08:41:41 51°13.635 2°43.496 8.1252 3.532896 33.714369 -2.458615
2012-01-09 08:41:45 51°13.627 2°43.477 8.1292 3.533621 33.721178 -2.458615
2012-01-09 08:41:51 51°13.616 2°43.449 8.1278 3.539108 33.778516 -2.458615
2012-01-09 08:41:56 51°13.606 2°43.425 8.1283 3.539108 33.778516 -2.458615
2012-01-09 08:42:01 51°13.597 2°43.401 8.1302 3.539316 33.780713 -2.458615
2012-01-09 08:42:06 51°13.589 2°43.377 8.1342 3.539108 33.777634 -2.458615
2012-01-09 08:42:11 51°13.579 2°43.353 8.1361 3.539419 33.779168 -2.458615
2012-01-09 08:42:15 51°13.572 2°43.333 8.1366 3.538901 33.771913 -2.458615
2012-01-09 08:42:21 51°13.561 2°43.304 8.1359 3.539108 33.772348 -2.458615
2012-01-09 08:42:25 51°13.554 2°43.285 8.1342 3.539108 33.772348 -2.458615
2012-01-09 08:42:31 51°13.542 2°43.256 8.1364 3.539108 33.771467 -2.458615
2012-01-09 08:42:36 51°13.533 2°43.233 8.137 3.538901 33.76839 -2.458615
2012-01-09 08:42:41 51°13.523 2°43.209 8.1389 3.539315 33.771021 -2.458615
2012-01-09 08:42:46 51°13.513 2°43.185 8.1403 3.539626 33.771674 -2.458615
2012-01-09 08:42:51 51°13.504 2°43.161 8.1441 3.539315 33.767498 -2.458615
2012-01-09 08:42:56 51°13.494 2°43.137 8.1438 3.539315 33.767498 -2.458615
2012-01-09 08:43:01 51°13.485 2°43.113 8.1474 3.539833 33.772989 -2.458615
2012-01-09 08:43:05 51°13.478 2°43.094 8.1455 3.540247 33.776501 -2.458615
2012-01-09 08:43:10 51°13.468 2°43.07 8.1445 3.540454 33.778698 -2.458615
2012-01-09 08:43:16 51°13.458 2°43.04 8.1449 3.54004 33.772543 -2.458615
2012-01-09 08:43:21 51°13.449 2°43.016 8.1486 3.539626 33.76639 -2.458615
2012-01-09 08:43:25 51°13.443 2°42.996 8.1462 3.539626 33.76639 -2.458615
2012-01-09 08:43:31 51°13.431 2°42.967 8.1497 3.540144 33.770119 -2.458615
2012-01-09 08:43:36 51°13.422 2°42.942 8.151 3.540351 33.769674 -2.458615
2012-01-09 08:43:41 51°13.413 2°42.918 8.1491 3.539936 33.764402 -2.458615
2012-01-09 08:43:45 51°13.406 2°42.898 8.1498 3.539833 33.763304 -2.458615
2012-01-09 08:43:51 51°13.395 2°42.869 8.1506 3.539833 33.761544 -2.458615
2012-01-09 08:43:56 51°13.386 2°42.845 8.1563 3.539833 33.761544 -2.458615
2012-01-09 08:44:01 51°13.376 2°42.821 8.151 3.539833 33.761544 -2.458615
2012-01-09 08:44:06 51°13.367 2°42.796 8.1523 3.539729 33.759566 -2.458615
2012-01-09 08:44:11 51°13.357 2°42.772 8.1528 3.540143 33.763077 -2.458615
2012-01-09 08:44:15 51°13.35 2°42.752 8.1537 3.540765 33.768783 -2.458615
2012-01-09 08:44:21 51°13.339 2°42.723 8.1549 3.540661 33.767686 -2.458615
2012-01-09 08:44:25 51°13.331 2°42.703 8.1588 3.540661 33.767686 -2.458615
2012-01-09 08:44:31 51°13.32 2°42.674 8.1582 3.540143 33.761317 -2.458615
2012-01-09 08:44:36 51°13.311 2°42.649 8.1622 3.540454 33.76285 -2.458615
2012-01-09 08:44:41 51°13.302 2°42.624 8.1605 3.539833 33.757144 -2.458615
2012-01-09 08:44:45 51°13.294 2°42.605 8.1581 3.540454 33.76285 -2.458615
2012-01-09 08:44:51 51°13.283 2°42.575 8.161 3.539626 33.753189 -2.458615
2012-01-09 08:44:56 51°13.273 2°42.55 8.16 3.539626 33.753189 -2.458615
2012-01-09 08:45:01 51°13.264 2°42.525 8.1622 3.539626 33.75143 -2.458615
2012-01-09 08:45:05 51°13.257 2°42.505 8.161 3.539419 33.747475 -2.458615
2012-01-09 08:45:11 51°13.245 2°42.475 8.1624 3.539522 33.746814 -2.458615
2012-01-09 08:45:16 51°13.236 2°42.451 8.1606 3.54004 33.752301 -2.458615
2012-01-09 08:45:21 51°13.226 2°42.426 8.1608 3.54035 33.756473 -2.458615
2012-01-09 08:45:25 51°13.217 2°42.407 8.1631 3.54035 33.756473 -2.458615
2012-01-09 08:45:31 51°13.204 2°42.378 8.1612 3.54004 33.751422 -2.458615
2012-01-09 08:45:36 51°13.194 2°42.354 8.1631 3.54004 33.750542 -2.458615
2012-01-09 08:45:41 51°13.183 2°42.331 8.1643 3.540247 33.752737 -2.458615
2012-01-09 08:45:45 51°13.175 2°42.312 8.1625 3.540247 33.752737 -2.458615
2012-01-09 08:45:51 51°13.162 2°42.284 8.1655 3.540972 33.760419 -2.458615
2012-01-09 08:45:56 51°13.152 2°42.26 8.1629 3.540972 33.760419 -2.458615
2012-01-09 08:46:01 51°13.141 2°42.236 8.1624 3.540143 33.75164 -2.458615
2012-01-09 08:46:06 51°13.131 2°42.212 8.1621 3.54035 33.753834 -2.458615
2012-01-09 08:46:11 51°13.121 2°42.188 8.1676 3.540143 33.75076 -2.458615
2012-01-09 08:46:15 51°13.113 2°42.169 8.1672 3.54004 33.749663 -2.458615
2012-01-09 08:46:21 51°13.101 2°42.141 8.1701 3.540247 33.750978 -2.458615
2012-01-09 08:46:25 51°13.093 2°42.12 8.1668 3.540247 33.750978 -2.458615
2012-01-09 08:46:31 51°13.081 2°42.092 8.17 3.540557 33.753391 -2.458615
2012-01-09 08:46:36 51°13.072 2°42.067 8.1724 3.540143 33.749001 -2.458615
2012-01-09 08:46:41 51°13.063 2°42.043 8.175 3.540661 33.754488 -2.458615
2012-01-09 08:46:45 51°13.056 2°42.023 8.1712 3.540454 33.750535 -2.458615
2012-01-09 08:46:51 51°13.044 2°41.994 8.1738 3.540454 33.749655 -2.458615
2012-01-09 08:46:56 51°13.035 2°41.969 8.1763 3.540454 33.749655 -2.458615
2012-01-09 08:47:01 51°13.025 2°41.945 8.1773 3.540247 33.746582 -2.458615
2012-01-09 08:47:05 51°13.017 2°41.925 8.1801 3.54035 33.747679 -2.458615
2012-01-09 08:47:11 51°13.005 2°41.896 8.1785 3.539833 33.739556 -2.458615
2012-01-09 08:47:16 51°12.994 2°41.873 8.1789 3.539936 33.739774 -2.458615
2012-01-09 08:47:21 51°12.984 2°41.849 8.1798 3.539833 33.737798 -2.458615
2012-01-09 08:47:25 51°12.976 2°41.83 8.1838 3.539833 33.737798 -2.458615
2012-01-09 08:47:31 51°12.964 2°41.802 8.1854 3.54004 33.739114 -2.458615
2012-01-09 08:47:36 51°12.954 2°41.779 8.1859 3.539936 33.737138 -2.458615
2012-01-09 08:47:41 51°12.944 2°41.755 8.1867 3.539418 33.730774 -2.458615
2012-01-09 08:47:45 51°12.937 2°41.736 8.1875 3.539418 33.729896 -2.458615
2012-01-09 08:47:50 51°12.926 2°41.712 8.1873 3.539833 33.733405 -2.458615
2012-01-09 08:47:56 51°12.914 2°41.683 8.1882 3.539833 33.733405 -2.458615
2012-01-09 08:48:01 51°12.904 2°41.66 8.1911 3.539833 33.731648 -2.458615
2012-01-09 08:48:06 51°12.894 2°41.636 8.1913 3.539833 33.729891 -2.458615
2012-01-09 08:48:11 51°12.885 2°41.612 8.1916 3.537037 33.698525 -2.458615
2012-01-09 08:48:16 51°12.875 2°41.588 8.1929 3.5418 33.747215 -2.458615
2012-01-09 08:48:21 51°12.865 2°41.565 8.1936 3.543974 33.769369 -2.458615
2012-01-09 08:48:26 51°12.854 2°41.541 8.1939 3.543974 33.769369 -2.458615
2012-01-09 08:48:31 51°12.844 2°41.517 8.1959 3.54387 33.767393 -2.458615
2012-01-09 08:48:35 51°12.836 2°41.499 8.1963 3.544181 33.768925 -2.458615
2012-01-09 08:48:41 51°12.825 2°41.47 8.1962 3.544078 33.766949 -2.458615
2012-01-09 08:48:45 51°12.817 2°41.451 8.1982 3.542939 33.754885 -2.458615
2012-01-09 08:48:51 51°12.806 2°41.421 8.1989 3.542939 33.753128 -2.458615
2012-01-09 08:48:55 51°12.798 2°41.402 8.199 3.542939 33.753128 -2.458615
2012-01-09 08:49:01 51°12.786 2°41.374 8.2027 3.543042 33.754224 -2.458615
2012-01-09 08:49:05 51°12.779 2°41.354 8.2016 3.542628 33.748081 -2.458615
2012-01-09 08:49:11 51°12.767 2°41.325 8.2033 3.542939 33.750492 -2.458615
2012-01-09 08:49:16 51°12.757 2°41.301 8.2047 3.542524 33.746106 -2.458615
2012-01-09 08:49:21 51°12.748 2°41.277 8.2044 3.543042 33.75071 -2.458615
2012-01-09 08:49:25 51°12.741 2°41.257 8.2091 3.543042 33.75071 -2.458615
2012-01-09 08:49:31 51°12.73 2°41.228 8.207 3.54387 33.757725 -2.458615
2012-01-09 08:49:36 51°12.721 2°41.203 8.208 3.535277 33.664982 -2.458615
2012-01-09 08:49:41 51°12.712 2°41.178 8.2087 3.54387 33.755089 -2.458615
2012-01-09 08:49:45 51°12.706 2°41.158 8.2101 3.544181 33.756621 -2.458615
2012-01-09 08:49:51 51°12.696 2°41.128 8.2118 3.54387 33.752453 -2.458615
2012-01-09 08:49:56 51°12.688 2°41.103 8.213 3.54387 33.752453 -2.458615
2012-01-09 08:50:01 51°12.679 2°41.078 8.2131 3.543663 33.749382 -2.458615
2012-01-09 08:50:05 51°12.672 2°41.057 8.2133 3.543249 33.743241 -2.458615
2012-01-09 08:50:11 51°12.663 2°41.027 8.2132 3.54387 33.74894 -2.458615
2012-01-09 08:50:16 51°12.654 2°41.002 8.2159 3.542835 33.737101 -2.458615
2012-01-09 08:50:21 51°12.646 2°40.977 8.2159 3.542938 33.737319 -2.458615
2012-01-09 08:50:25 51°12.639 2°40.957 8.2173 3.542938 33.737319 -2.458615
2012-01-09 08:50:31 51°12.629 2°40.927 8.2175 3.541903 33.724603 -2.458615
2012-01-09 08:50:36 51°12.62 2°40.902 8.2175 3.54211 33.725918 -2.458615
2012-01-09 08:50:41 51°12.611 2°40.878 8.2187 3.542317 33.727232 -2.458615
2012-01-09 08:50:45 51°12.605 2°40.857 8.2207 3.543249 33.736218 -2.458615
2012-01-09 08:50:51 51°12.594 2°40.827 8.2227 3.542524 33.727669 -2.458615
2012-01-09 08:50:55 51°12.587 2°40.808 8.2211 3.542524 33.727669 -2.458615
2012-01-09 08:51:01 51°12.575 2°40.779 8.222 3.542421 33.725696 -2.458615
2012-01-09 08:51:05 51°12.568 2°40.76 8.2249 3.541903 33.71934 -2.458615
2012-01-09 08:51:11 51°12.556 2°40.731 8.225 3.542214 33.72175 -2.458615
2012-01-09 08:51:16 51°12.546 2°40.707 8.2269 3.542006 33.718681 -2.458615
2012-01-09 08:51:21 51°12.537 2°40.683 8.2266 3.542006 33.717804 -2.458615
2012-01-09 08:51:25 51°12.529 2°40.664 8.23 3.542006 33.717804 -2.458615
2012-01-09 08:51:31 51°12.518 2°40.634 8.2287 3.540971 33.705094 -2.458615
2012-01-09 08:51:36 51°12.508 2°40.611 8.2284 3.541385 33.709476 -2.458615
2012-01-09 08:51:41 51°12.498 2°40.587 8.2289 3.541075 33.704436 -2.458615
2012-01-09 08:51:45 51°12.49 2°40.568 8.2328 3.541075 33.703559 -2.458615
2012-01-09 08:51:51 51°12.479 2°40.539 8.2329 3.541074 33.702683 -2.458615
2012-01-09 08:51:56 51°12.469 2°40.516 8.2345 3.541074 33.702683 -2.458615
2012-01-09 08:52:01 51°12.459 2°40.493 8.2328 3.540557 33.696329 -2.458615
2012-01-09 08:52:05 51°12.45 2°40.474 8.2344 3.541178 33.702025 -2.458615
2012-01-09 08:52:11 51°12.438 2°40.446 8.2358 3.54035 33.692386 -2.458615
2012-01-09 08:52:16 51°12.429 2°40.422 8.2352 3.540867 33.696987 -2.458615
2012-01-09 08:52:21 51°12.419 2°40.398 8.237 3.543352 33.7224 -2.458615
2012-01-09 08:52:25 51°12.411 2°40.379 8.2396 3.543352 33.7224 -2.458615
2012-01-09 08:52:31 51°12.399 2°40.351 8.2379 3.543456 33.721742 -2.458615
2012-01-09 08:52:36 51°12.389 2°40.327 8.241 3.543559 33.72196 -2.458615
2012-01-09 08:52:41 51°12.381 2°40.302 8.2401 3.543042 33.715607 -2.458615
2012-01-09 08:52:45 51°12.374 2°40.283 8.2435 3.542938 33.713635 -2.458615
2012-01-09 08:52:51 51°12.364 2°40.253 8.2404 3.547597 33.762051 -2.458615
2012-01-09 08:52:55 51°12.356 2°40.233 8.2419 3.547597 33.762051 -2.458615
2012-01-09 08:53:01 51°12.345 2°40.204 8.2434 3.548011 33.764678 -2.458615
2012-01-09 08:53:05 51°12.339 2°40.183 8.2412 3.547597 33.759418 -2.458615
2012-01-09 08:53:11 51°12.329 2°40.154 8.2442 3.548426 33.766426 -2.458615
2012-01-09 08:53:16 51°12.32 2°40.129 8.2441 3.548633 33.767739 -2.458615
2012-01-09 08:53:21 51°12.312 2°40.104 8.2422 3.548633 33.767739 -2.458615
2012-01-09 08:53:25 51°12.305 2°40.084 8.2446 3.548633 33.767739 -2.458615
2012-01-09 08:53:31 51°12.295 2°40.054 8.2455 3.548633 33.766862 -2.458615
2012-01-09 08:53:36 51°12.286 2°40.03 8.2439 3.548011 33.759412 -2.458615
2012-01-09 08:53:41 51°12.277 2°40.005 8.2444 3.546872 33.747364 -2.458615
2012-01-09 08:53:45 51°12.271 2°39.985 8.2462 3.546458 33.742983 -2.458615
2012-01-09 08:53:51 51°12.261 2°39.955 8.2481 3.547597 33.754153 -2.458615
2012-01-09 08:53:56 51°12.251 2°39.93 8.2488 3.547597 33.754153 -2.458615
2012-01-09 08:54:01 51°12.243 2°39.905 8.2482 3.548115 33.75963 -2.458615
2012-01-09 08:54:06 51°12.234 2°39.881 8.2495 3.547597 33.754153 -2.458615
2012-01-09 08:54:11 51°12.225 2°39.857 8.2486 3.547494 33.752181 -2.458615
2012-01-09 08:54:16 51°12.216 2°39.831 8.2485 3.546251 33.739039 -2.458615
2012-01-09 08:54:21 51°12.208 2°39.807 8.25 3.544905 33.723925 -2.458615
2012-01-09 08:54:25 51°12.201 2°39.787 8.2493 3.544905 33.723925 -2.458615
2012-01-09 08:54:31 51°12.19 2°39.757 8.2492 3.54563 33.730714 -2.458615
2012-01-09 08:54:36 51°12.182 2°39.732 8.251 3.544284 33.715603 -2.458615
2012-01-09 08:54:41 51°12.173 2°39.708 8.2503 3.54563 33.728961 -2.458615
2012-01-09 08:54:45 51°12.166 2°39.688 8.2517 3.545526 33.72699 -2.458615
2012-01-09 08:54:50 51°12.157 2°39.665 8.2536 3.545423 33.725895 -2.458615
2012-01-09 08:54:56 51°12.145 2°39.636 8.2525 3.545423 33.725895 -2.458615
2012-01-09 08:55:01 51°12.135 2°39.612 8.2538 3.545112 33.72261 -2.458615
2012-01-09 08:55:05 51°12.128 2°39.593 8.2541 3.544905 33.72042 -2.458615
2012-01-09 08:55:11 51°12.116 2°39.564 8.2567 3.545423 33.725895 -2.458615
2012-01-09 08:55:16 51°12.108 2°39.539 8.2563 3.545216 33.722828 -2.458615
2012-01-09 08:55:21 51°12.098 2°39.516 8.2561 3.545837 33.728521 -2.458615
2012-01-09 08:55:26 51°12.088 2°39.492 8.2587 3.545837 33.728521 -2.458615
2012-01-09 08:55:31 51°12.079 2°39.468 8.2605 3.545526 33.72436 -2.458615
2012-01-09 08:55:35 51°12.071 2°39.449 8.2587 3.545112 33.719105 -2.458615
2012-01-09 08:55:41 51°12.059 2°39.421 8.2589 3.544905 33.716039 -2.458615
2012-01-09 08:55:45 51°12.051 2°39.403 8.2605 3.545319 33.719542 -2.458615
2012-01-09 08:55:51 51°12.039 2°39.374 8.26 3.544594 33.711878 -2.458615
2012-01-09 08:55:55 51°12.032 2°39.355 8.2607 3.544594 33.711878 -2.458615
2012-01-09 08:56:01 51°12.02 2°39.327 8.2601 3.545112 33.7156 -2.458615
2012-01-09 08:56:05 51°12.013 2°39.308 8.2593 3.543973 33.702683 -2.458615
2012-01-09 08:56:11 51°12.002 2°39.279 8.2622 3.543766 33.699618 -2.458615
2012-01-09 08:56:16 51°11.993 2°39.255 8.2613 3.543766 33.699618 -2.458615
2012-01-09 08:56:21 51°11.984 2°39.23 8.2637 3.54387 33.699837 -2.458615
2012-01-09 08:56:25 51°11.977 2°39.21 8.2639 3.54387 33.699837 -2.458615
2012-01-09 08:56:31 51°11.967 2°39.181 8.2646 3.543455 33.694584 -2.458615
2012-01-09 08:56:36 51°11.958 2°39.156 8.2633 3.543041 33.690206 -2.458615
2012-01-09 08:56:41 51°11.949 2°39.132 8.2664 3.543766 33.697867 -2.458615
2012-01-09 08:56:45 51°11.941 2°39.113 8.2654 3.543145 33.690425 -2.458615
2012-01-09 08:56:51 51°11.93 2°39.084 8.2665 3.542213 33.6797 -2.458615
2012-01-09 08:56:56 51°11.921 2°39.06 8.2664 3.542213 33.6797 -2.458615
2012-01-09 08:57:01 51°11.912 2°39.036 8.267 3.545423 33.712753 -2.458615
2012-01-09 08:57:05 51°11.904 2°39.017 8.266 3.547597 33.73574 -2.458615
2012-01-09 08:57:11 51°11.891 2°38.991 8.2683 3.547597 33.73574 -2.458615
2012-01-09 08:57:16 51°11.881 2°38.967 8.2688 3.54387 33.694585 -2.458615
2012-01-09 08:57:21 51°11.871 2°38.944 8.2711 3.541281 33.667227 -2.458615
2012-01-09 08:57:26 51°11.861 2°38.921 8.2709 3.541281 33.667227 -2.458615
2012-01-09 08:57:31 51°11.851 2°38.898 8.2725 3.540349 33.657379 -2.458615
2012-01-09 08:57:35 51°11.844 2°38.879 8.2712 3.54097 33.663944 -2.458615
2012-01-09 08:57:41 51°11.831 2°38.852 8.2726 3.541799 33.671824 -2.458615
2012-01-09 08:57:46 51°11.821 2°38.828 8.2705 3.546044 33.715817 -2.458615
2012-01-09 08:57:50 51°11.814 2°38.809 8.274 3.551946 33.777333 -2.458615
2012-01-09 08:57:56 51°11.803 2°38.781 8.2741 3.551946 33.777333 -2.458615
2012-01-09 08:58:01 51°11.793 2°38.758 8.275 3.551117 33.766821 -2.458615
2012-01-09 08:58:05 51°11.785 2°38.739 8.2771 3.551428 33.770105 -2.458615
2012-01-09 08:58:11 51°11.775 2°38.71 8.2741 3.552049 33.775796 -2.458615
2012-01-09 08:58:16 51°11.766 2°38.686 8.2749 3.55236 33.778202 -2.458615
2012-01-09 08:58:21 51°11.757 2°38.661 8.2769 3.55236 33.777325 -2.458615
2012-01-09 08:58:25 51°11.75 2°38.642 8.2834 3.55236 33.777325 -2.458615
2012-01-09 08:58:31 51°11.74 2°38.612 8.2787 3.552877 33.781921 -2.458615
2012-01-09 08:58:36 51°11.731 2°38.587 8.2794 3.553085 33.783233 -2.458615
2012-01-09 08:58:41 51°11.724 2°38.562 8.278 3.553188 33.78345 -2.458615
2012-01-09 08:58:45 51°11.716 2°38.543 8.2796 3.553499 33.786734 -2.458615
2012-01-09 08:58:51 51°11.706 2°38.513 8.2784 3.553292 33.783667 -2.458615
2012-01-09 08:58:56 51°11.698 2°38.488 8.2792 3.553292 33.783667 -2.458615
2012-01-09 08:59:01 51°11.689 2°38.464 8.2805 3.553602 33.786074 -2.458615
2012-01-09 08:59:05 51°11.683 2°38.444 8.2797 3.553602 33.784319 -2.458615
2012-01-09 08:59:11 51°11.672 2°38.415 8.2816 3.553706 33.785414 -2.458615
2012-01-09 08:59:16 51°11.662 2°38.391 8.2804 3.553706 33.785414 -2.458615
2012-01-09 08:59:21 51°11.652 2°38.368 8.2853 3.446863 32.657903 -2.458615
2012-01-09 08:59:25 51°11.644 2°38.349 8.2844 3.446863 32.657903 -2.458615
2012-01-09 08:59:31 51°11.633 2°38.321 8.2852 3.552463 33.771404 -2.458615
2012-01-09 08:59:36 51°11.623 2°38.298 8.2844 3.55236 33.771186 -2.458615
2012-01-09 08:59:41 51°11.613 2°38.275 8.2863 3.552774 33.774687 -2.458615
2012-01-09 08:59:45 51°11.604 2°38.256 8.2885 3.552774 33.77381 -2.458615
2012-01-09 08:59:51 51°11.592 2°38.229 8.2889 3.552877 33.774904 -2.458615
2012-01-09 08:59:56 51°11.582 2°38.206 8.2894 3.552877 33.774904 -2.458615
2012-01-09 09:00:01 51°11.573 2°38.182 8.291 3.553188 33.77731 -2.458615
2012-01-09 09:00:05 51°11.564 2°38.164 8.2898 3.553292 33.777528 -2.458615
2012-01-09 09:00:11 51°11.553 2°38.135 8.2922 3.553292 33.776651 -2.458615
2012-01-09 09:00:16 51°11.544 2°38.112 8.2922 3.553809 33.781246 -2.458615
2012-01-09 09:00:21 51°11.534 2°38.088 8.2954 3.554016 33.782557 -2.458615
2012-01-09 09:00:25 51°11.527 2°38.068 8.2978 3.554016 33.782557 -2.458615
2012-01-09 09:00:31 51°11.516 2°38.04 8.2971 3.554327 33.784086 -2.458615
2012-01-09 09:00:36 51°11.507 2°38.016 8.3004 3.554534 33.785398 -2.458615
2012-01-09 09:00:41 51°11.498 2°37.991 8.3026 3.554741 33.786709 -2.458615
2012-01-09 09:00:46 51°11.489 2°37.967 8.3036 3.554948 33.787144 -2.458615
2012-01-09 09:00:51 51°11.48 2°37.943 8.3018 3.555259 33.788672 -2.458615
2012-01-09 09:00:56 51°11.472 2°37.918 8.3048 3.555259 33.788672 -2.458615
2012-01-09 09:01:01 51°11.463 2°37.894 8.3051 3.555466 33.789107 -2.458615
2012-01-09 09:01:05 51°11.456 2°37.874 8.3047 3.555673 33.789541 -2.458615
2012-01-09 09:01:11 51°11.446 2°37.844 8.3068 3.555983 33.791069 -2.458615
2012-01-09 09:01:16 51°11.437 2°37.82 8.3101 3.556294 33.792598 -2.458615
2012-01-09 09:01:21 51°11.429 2°37.795 8.3112 3.556605 33.795002 -2.458615
2012-01-09 09:01:25 51°11.422 2°37.775 8.3115 3.556605 33.795002 -2.458615
2012-01-09 09:01:31 51°11.411 2°37.746 8.3132 3.556915 33.797407 -2.458615
2012-01-09 09:01:36 51°11.403 2°37.721 8.3124 3.557122 33.798718 -2.458615
2012-01-09 09:01:41 51°11.394 2°37.697 8.3165 3.557433 33.801123 -2.458615
2012-01-09 09:01:45 51°11.387 2°37.677 8.3157 3.557847 33.804622 -2.458615
2012-01-09 09:01:51 51°11.376 2°37.648 8.318 3.558054 33.805055 -2.458615
2012-01-09 09:01:56 51°11.367 2°37.624 8.3188 3.558054 33.805055 -2.458615
2012-01-09 09:02:01 51°11.358 2°37.599 8.3198 3.558158 33.804395 -2.458615
2012-01-09 09:02:05 51°11.351 2°37.58 8.3227 3.558572 33.807893 -2.458615
2012-01-09 09:02:11 51°11.34 2°37.551 8.3237 3.55909 33.812485 -2.458615
2012-01-09 09:02:16 51°11.331 2°37.526 8.3245 3.559193 33.811825 -2.458615
2012-01-09 09:02:21 51°11.322 2°37.502 8.3265 3.559504 33.813352 -2.458615
2012-01-09 09:02:26 51°11.313 2°37.477 8.3263 3.559504 33.813352 -2.458615
2012-01-09 09:02:31 51°11.304 2°37.454 8.3282 3.559814 33.814879 -2.458615
2012-01-09 09:02:36 51°11.294 2°37.429 8.3288 3.560125 33.816406 -2.458615
2012-01-09 09:02:41 51°11.285 2°37.405 8.3298 3.560435 33.817933 -2.458615
2012-01-09 09:02:45 51°11.277 2°37.386 8.3318 3.560643 33.818366 -2.458615
2012-01-09 09:02:51 51°11.265 2°37.358 8.3335 3.561057 33.821863 -2.458615
2012-01-09 09:02:56 51°11.255 2°37.335 8.3346 3.561057 33.821863 -2.458615
2012-01-09 09:03:01 51°11.245 2°37.312 8.3351 3.561057 33.820109 -2.458615
2012-01-09 09:03:05 51°11.237 2°37.294 8.3358 3.561678 33.82667 -2.458615
2012-01-09 09:03:11 51°11.225 2°37.265 8.3364 3.561781 33.826009 -2.458615
2012-01-09 09:03:16 51°11.215 2°37.241 8.3371 3.561989 33.827319 -2.458615
2012-01-09 09:03:21 51°11.205 2°37.218 8.3379 3.562299 33.828845 -2.458615
2012-01-09 09:03:25 51°11.197 2°37.2 8.3404 3.562299 33.828845 -2.458615
2012-01-09 09:03:31 51°11.186 2°37.172 8.34 3.562403 33.829061 -2.458615
2012-01-09 09:03:36 51°11.176 2°37.147 8.3413 3.56261 33.830371 -2.458615
2012-01-09 09:03:41 51°11.167 2°37.123 8.3428 3.562817 33.830804 -2.458615
2012-01-09 09:03:45 51°11.16 2°37.105 8.343 3.563127 33.833207 -2.458615
2012-01-09 09:03:50 51°11.15 2°37.08 8.3444 3.563438 33.834732 -2.458615
2012-01-09 09:03:56 51°11.14 2°37.051 8.3481 3.563438 33.834732 -2.458615
2012-01-09 09:04:01 51°11.131 2°37.027 8.3486 3.563749 33.837135 -2.458615
2012-01-09 09:04:05 51°11.124 2°37.007 8.347 3.563645 33.834288 -2.458615
2012-01-09 09:04:11 51°11.112 2°36.979 8.3521 3.563852 33.835597 -2.458615
2012-01-09 09:04:16 51°11.104 2°36.954 8.3481 3.563956 33.835813 -2.458615
2012-01-09 09:04:21 51°11.093 2°36.932 8.3507 3.564473 33.839525 -2.458615
2012-01-09 09:04:25 51°11.085 2°36.914 8.3502 3.564473 33.839525 -2.458615
2012-01-09 09:04:31 51°11.071 2°36.889 8.3506 3.564577 33.838864 -2.458615
2012-01-09 09:04:36 51°11.058 2°36.869 8.35 3.564784 33.840173 -2.458615
2012-01-09 09:04:41 51°11.045 2°36.849 8.351 3.564888 33.84039 -2.458615
2012-01-09 09:04:45 51°11.035 2°36.834 8.351 3.565095 33.841699 -2.458615
2012-01-09 09:04:51 51°11.019 2°36.811 8.3536 3.565198 33.842792 -2.458615
2012-01-09 09:04:56 51°11.006 2°36.793 8.3535 3.565198 33.842792 -2.458615